| time (UTC) | temp F | wind direction | speed MPH | gust MPH | rain 1hr in | rain 24hr in | rain mn in | humidity % | barometer mb |
| 20260905025721 | 60 | 204 | 0.0 | 1.0 | 0.00 | 0.00 | 0.00 | 95 | 1012.2 |
| 20260905025235 | 61 | 198 | 0.0 | 1.0 | 0.00 | 0.00 | 0.00 | 94 | 1012.5 |
| 20260905025219 | 61 | 197 | 0.0 | 1.0 | 0.00 | 0.00 | 0.00 | 94 | 1012.4 |
| 20260905024943 | 60 | 199 | 0.0 | 1.0 | 0.00 | 0.00 | 0.00 | 94 | 1012.4 |
| 20260905024714 | 60 | 197 | 0.0 | 1.0 | 0.00 | 0.00 | 0.00 | 94 | 1012.4 |
| 20260905024614 | 60 | 197 | 0.0 | 1.0 | 0.00 | 0.00 | 0.00 | 94 | 1012.7 |
| 20260905024514 | 60 | 210 | 0.0 | 1.0 | 0.00 | 0.00 | 0.00 | 94 | 1012.7 |
| 20260905024414 | 60 | 204 | 0.0 | 1.0 | 0.00 | 0.00 | 0.00 | 94 | 1012.7 |
| 20260905024313 | 60 | 203 | 0.0 | 2.0 | 0.00 | 0.00 | 0.00 | 94 | 1012.7 |
| 20260905024213 | 60 | 199 | 0.0 | 2.0 | 0.00 | 0.00 | 0.00 | 94 | 1012.5 |
| 20260905024113 | 60 | 202 | 0.0 | 2.0 | 0.00 | 0.00 | 0.00 | 94 | 1012.6 |
| 20260905024013 | 60 | 200 | 0.0 | 2.0 | 0.00 | 0.00 | 0.00 | 94 | 1012.4 |
| 20260905023913 | 60 | 200 | 0.0 | 2.0 | 0.00 | 0.00 | 0.00 | 94 | 1012.6 |
| 20260905023813 | 60 | 199 | 0.0 | 2.0 | 0.00 | 0.00 | 0.00 | 94 | 1012.7 |
| 20260905023714 | 60 | 199 | 0.0 | 2.0 | 0.00 | 0.00 | 0.00 | 94 | 1012.7 |
| 20260905023609 | 60 | 201 | 0.0 | 2.0 | 0.00 | 0.00 | 0.00 | 94 | 1012.9 |
| 20260905023509 | 60 | 185 | 0.0 | 2.0 | 0.00 | 0.00 | 0.00 | 94 | 1012.6 |
| 20260905023409 | 60 | 181 | 0.0 | 2.0 | 0.00 | 0.00 | 0.00 | 94 | 1012.7 |
| 20260905023352 | 60 | 199 | 0.0 | 2.0 | 0.00 | 0.00 | 0.00 | 94 | 1012.9 |
| 20260905023330 | 61 | 202 | 0.0 | 3.0 | 0.00 | 0.00 | 0.00 | 94 | 1012.8 |
| 20260905023010 | 60 | 196 | 0.0 | 3.0 | 0.00 | 0.00 | 0.00 | 94 | 1012.6 |
| 20260905022955 | 60 | 198 | 0.0 | 3.0 | 0.00 | 0.00 | 0.00 | 95 | 1012.7 |
| 20260905022938 | 60 | 190 | 0.0 | 3.0 | 0.00 | 0.00 | 0.00 | 95 | 1012.8 |
| 20260905022709 | 60 | 195 | 0.0 | 3.0 | 0.00 | 0.00 | 0.00 | 95 | 1012.5 |
| 20260905022609 | 60 | 204 | 1.0 | 3.0 | 0.00 | 0.00 | 0.00 | 95 | 1012.7 |
| 20260905022552 | 61 | 200 | 0.0 | 3.0 | 0.00 | 0.00 | 0.00 | 95 | 1012.5 |
| 20260905022543 | 60 | 212 | 0.0 | 3.0 | 0.00 | 0.00 | 0.00 | 95 | 1012.8 |
| 20260905022528 | 60 | 203 | 0.0 | 3.0 | 0.00 | 0.00 | 0.00 | 95 | 1012.8 |
| 20260905022512 | 60 | 195 | 0.0 | 2.0 | 0.00 | 0.00 | 0.00 | 95 | 1012.8 |
| 20260905022450 | 60 | 222 | 1.0 | 2.0 | 0.00 | 0.00 | 0.00 | 95 | 1012.6 |
| 20260905022434 | 61 | 198 | 0.0 | 1.0 | 0.00 | 0.00 | 0.00 | 95 | 1012.7 |
| 20260905022419 | 61 | 201 | 0.0 | 1.0 | 0.00 | 0.00 | 0.00 | 95 | 1012.9 |
| 20260905022403 | 61 | 202 | 0.0 | 3.0 | 0.00 | 0.00 | 0.00 | 95 | 1012.6 |
| 20260905021613 | 61 | 190 | 1.0 | 2.0 | 0.00 | 0.00 | 0.00 | 95 | 1013.0 |
| 20260905021609 | 61 | 202 | 0.0 | 3.0 | 0.00 | 0.00 | 0.00 | 95 | 1012.7 |
| 20260905021552 | 61 | 195 | 0.0 | 3.0 | 0.00 | 0.00 | 0.00 | 95 | 1012.8 |
| 20260905021536 | 61 | 199 | 0.0 | 3.0 | 0.00 | 0.00 | 0.00 | 95 | 1012.8 |
| 20260905021312 | 61 | 281 | 0.0 | 3.0 | 0.00 | 0.00 | 0.00 | 95 | 1012.9 |
| 20260905021247 | 60 | 200 | 0.0 | 3.0 | 0.00 | 0.00 | 0.00 | 95 | 1012.7 |
| 20260905021232 | 60 | 213 | 0.0 | 3.0 | 0.00 | 0.00 | 0.00 | 95 | 1012.7 |
| 20260905021215 | 61 | 166 | 0.0 | 3.0 | 0.00 | 0.00 | 0.00 | 95 | 1012.8 |
| 20260905021159 | 61 | 209 | 1.0 | 2.0 | 0.00 | 0.00 | 0.00 | 95 | 1012.8 |
| 20260905020919 | 61 | 190 | 1.0 | 2.0 | 0.00 | 0.00 | 0.00 | 95 | 1013.0 |
| 20260905020611 | 61 | 198 | 0.0 | 2.0 | 0.00 | 0.00 | 0.00 | 95 | 1013.1 |
| 20260905020513 | 61 | 199 | 0.0 | 3.0 | 0.00 | 0.00 | 0.00 | 95 | 1012.7 |
| 20260905020509 | 61 | 166 | 1.0 | 2.0 | 0.00 | 0.00 | 0.00 | 95 | 1013.1 |
| 20260905020458 | 61 | 190 | 0.0 | 1.0 | 0.00 | 0.00 | 0.00 | 95 | 1012.8 |
| 20260905020448 | 61 | 202 | 0.0 | 2.0 | 0.00 | 0.00 | 0.00 | 95 | 1012.8 |
| 20260905020432 | 61 | 192 | 0.0 | 2.0 | 0.00 | 0.00 | 0.00 | 95 | 1013.0 |
| 20260905020410 | 61 | 221 | 1.0 | 2.0 | 0.00 | 0.00 | 0.00 | 95 | 1012.9 |
| 20260905020143 | 61 | 190 | 0.0 | 2.0 | 0.00 | 0.00 | 0.00 | 95 | 1013.1 |
| 20260905020127 | 61 | 200 | 0.0 | 2.0 | 0.00 | 0.00 | 0.00 | 95 | 1012.9 |
| 20260905020112 | 61 | 194 | 0.0 | 2.0 | 0.00 | 0.00 | 0.00 | 95 | 1012.9 |
| 20260905020056 | 61 | 186 | 0.0 | 2.0 | 0.00 | 0.00 | 0.00 | 95 | 1012.9 |
| 20260905020032 | 61 | 200 | 0.0 | 2.0 | 0.00 | 0.00 | 0.00 | 95 | 1013.0 |
| 20260905020017 | 61 | 190 | 0.0 | 2.0 | 0.00 | 0.00 | 0.00 | 95 | 1012.6 |
| 20260905015520 | 61 | 192 | 0.0 | 1.0 | 0.00 | 0.00 | 0.00 | 95 | 1012.8 |
| 20260905015502 | 61 | 190 | 0.0 | 1.0 | 0.00 | 0.00 | 0.00 | 95 | 1012.8 |
| 20260905015237 | 61 | 198 | 0.0 | 1.0 | 0.00 | 0.00 | 0.00 | 95 | 1013.1 |
| 20260905015223 | 61 | 215 | 1.0 | 1.0 | 0.00 | 0.00 | 0.00 | 95 | 1012.8 |
| 20260905015207 | 61 | 204 | 0.0 | 1.0 | 0.00 | 0.00 | 0.00 | 95 | 1013.0 |
| 20260905015151 | 61 | 200 | 0.0 | 1.0 | 0.00 | 0.00 | 0.00 | 95 | 1013.0 |
| 20260905014922 | 61 | 192 | 0.0 | 1.0 | 0.00 | 0.00 | 0.00 | 95 | 1012.8 |
| 20260905014907 | 61 | 195 | 0.0 | 1.0 | 0.00 | 0.00 | 0.00 | 95 | 1013.0 |
| 20260905014850 | 61 | 188 | 0.0 | 1.0 | 0.00 | 0.00 | 0.00 | 95 | 1012.8 |
| 20260905014834 | 61 | 181 | 0.0 | 1.0 | 0.00 | 0.00 | 0.00 | 95 | 1012.7 |
| 20260905014818 | 61 | 211 | 0.0 | 1.0 | 0.00 | 0.00 | 0.00 | 95 | 1013.0 |
| 20260905014756 | 61 | 196 | 0.0 | 3.0 | 0.00 | 0.00 | 0.00 | 95 | 1012.9 |
| 20260905014741 | 61 | 196 | 0.0 | 3.0 | 0.00 | 0.00 | 0.00 | 95 | 1012.9 |
| 20260905014725 | 61 | 192 | 0.0 | 3.0 | 0.00 | 0.00 | 0.00 | 95 | 1012.7 |
| 20260905014710 | 61 | 197 | 0.0 | 3.0 | 0.00 | 0.00 | 0.00 | 95 | 1012.8 |
| 20260905014654 | 61 | 196 | 0.0 | 3.0 | 0.00 | 0.00 | 0.00 | 95 | 1012.6 |
| 20260905014205 | 61 | 192 | 0.0 | 3.0 | 0.00 | 0.00 | 0.00 | 95 | 1012.9 |
| 20260905013930 | 61 | 200 | 0.0 | 3.0 | 0.00 | 0.00 | 0.00 | 95 | 1012.4 |
| 20260905013645 | 61 | 199 | 0.0 | 1.0 | 0.00 | 0.00 | 0.00 | 95 | 1012.4 |
| 20260905013410 | 61 | 194 | 0.0 | 1.0 | 0.00 | 0.00 | 0.00 | 95 | 1012.2 |
| 20260905012904 | 61 | 199 | 0.0 | 0.0 | 0.00 | 0.00 | 0.00 | 95 | 1012.3 |
| 20260905012629 | 61 | 199 | 0.0 | 0.0 | 0.00 | 0.00 | 0.00 | 95 | 1012.2 |
| 20260905012350 | 61 | 198 | 0.0 | 0.0 | 0.00 | 0.00 | 0.00 | 95 | 1012.2 |
| 20260905012328 | 61 | 199 | 0.0 | 0.0 | 0.00 | 0.00 | 0.00 | 95 | 1012.3 |
| 20260905012009 | 61 | 196 | 0.0 | 0.0 | 0.00 | 0.00 | 0.00 | 95 | 1012.3 |
| 20260905011909 | 61 | 199 | 0.0 | 0.0 | 0.00 | 0.00 | 0.00 | 95 | 1012.2 |
| 20260905011810 | 61 | 198 | 0.0 | 1.0 | 0.00 | 0.00 | 0.00 | 94 | 1012.4 |
| 20260905011711 | 61 | 200 | 0.0 | 1.0 | 0.00 | 0.00 | 0.00 | 94 | 1012.3 |
| 20260905011644 | 61 | 223 | 0.0 | 1.0 | 0.00 | 0.00 | 0.00 | 94 | 1012.3 |
| 20260905011629 | 61 | 200 | 0.0 | 1.0 | 0.00 | 0.00 | 0.00 | 94 | 1012.6 |
| 20260905011310 | 61 | 198 | 0.0 | 1.0 | 0.00 | 0.00 | 0.00 | 94 | 1012.3 |
| 20260905011210 | 61 | 198 | 0.0 | 1.0 | 0.00 | 0.00 | 0.00 | 94 | 1012.2 |
| 20260905011110 | 61 | 202 | 0.0 | 1.0 | 0.00 | 0.00 | 0.00 | 94 | 1012.4 |
| 20260905011009 | 61 | 206 | 0.0 | 1.0 | 0.00 | 0.00 | 0.00 | 94 | 1012.4 |
| 20260905010945 | 61 | 193 | 0.0 | 1.0 | 0.00 | 0.00 | 0.00 | 94 | 1012.6 |
| 20260905010929 | 61 | 204 | 0.0 | 1.0 | 0.00 | 0.00 | 0.00 | 93 | 1012.5 |
| 20260905010905 | 62 | 197 | 0.0 | 1.0 | 0.00 | 0.00 | 0.00 | 93 | 1012.5 |
| 20260905010630 | 62 | 190 | 0.0 | 1.0 | 0.00 | 0.00 | 0.00 | 93 | 1012.4 |
| 20260905010309 | 62 | 198 | 0.0 | 1.0 | 0.00 | 0.00 | 0.00 | 93 | 1012.2 |
| 20260905010221 | 62 | 203 | 0.0 | 1.0 | 0.00 | 0.00 | 0.00 | 92 | 1012.6 |
| 20260905010145 | 62 | 188 | 0.0 | 1.0 | 0.00 | 0.00 | 0.00 | 92 | 1012.4 |
| 20260905010129 | 62 | 196 | 0.0 | 1.0 | 0.00 | 0.00 | 0.00 | 92 | 1012.6 |
| 20260905005810 | 62 | 196 | 0.0 | 2.0 | 0.00 | 0.00 | 0.00 | 92 | 1012.3 |
| 20260905005709 | 62 | 196 | 0.0 | 2.0 | 0.00 | 0.00 | 0.00 | 91 | 1012.3 |
| 20260905005609 | 62 | 198 | 0.0 | 2.0 | 0.00 | 0.00 | 0.00 | 91 | 1012.4 |
| 20260905005510 | 62 | 203 | 0.0 | 2.0 | 0.00 | 0.00 | 0.00 | 91 | 1012.6 |
| 20260905005409 | 62 | 194 | 0.0 | 2.0 | 0.00 | 0.00 | 0.00 | 91 | 1012.5 |
| 20260905005309 | 62 | 193 | 0.0 | 2.0 | 0.00 | 0.00 | 0.00 | 90 | 1012.4 |
| 20260905005222 | 62 | 181 | 0.0 | 2.0 | 0.00 | 0.00 | 0.00 | 90 | 1012.4 |
| 20260905005144 | 63 | 187 | 0.0 | 2.0 | 0.00 | 0.00 | 0.00 | 89 | 1012.6 |
| 20260905005129 | 63 | 200 | 0.0 | 2.0 | 0.00 | 0.00 | 0.00 | 89 | 1012.6 |
| 20260905004810 | 63 | 159 | 0.0 | 1.0 | 0.00 | 0.00 | 0.00 | 87 | 1012.3 |
| 20260905004707 | 64 | 184 | 0.0 | 0.0 | 0.00 | 0.00 | 0.00 | 87 | 1012.4 |
| 20260905004337 | 64 | 33 | 1.0 | 3.0 | 0.00 | 0.00 | 0.00 | 84 | 1012.6 |
| 20260905004324 | 64 | 209 | 1.0 | 2.0 | 0.00 | 0.00 | 0.00 | 84 | 1012.6 |
| 20260905004315 | 64 | 205 | 1.0 | 2.0 | 0.00 | 0.00 | 0.00 | 84 | 1012.7 |
| 20260905003953 | 64 | 221 | 1.0 | 2.0 | 0.00 | 0.00 | 0.00 | 83 | 1012.2 |
| 20260905003853 | 64 | 127 | 0.0 | 3.0 | 0.00 | 0.00 | 0.00 | 83 | 1012.1 |
| 20260905003828 | 64 | 202 | 0.0 | 3.0 | 0.00 | 0.00 | 0.00 | 82 | 1012.4 |
| 20260905003820 | 64 | 195 | 0.0 | 3.0 | 0.00 | 0.00 | 0.00 | 83 | 1012.2 |
| 20260905003807 | 64 | 190 | 0.0 | 3.0 | 0.00 | 0.00 | 0.00 | 83 | 1012.2 |
| 20260905003755 | 64 | 189 | 1.0 | 3.0 | 0.00 | 0.00 | 0.00 | 83 | 1012.0 |
| 20260905003739 | 64 | 165 | 0.0 | 3.0 | 0.00 | 0.00 | 0.00 | 83 | 1011.8 |
| 20260905003515 | 64 | 171 | 0.0 | 3.0 | 0.00 | 0.00 | 0.00 | 83 | 1012.0 |
| 20260905003459 | 64 | 191 | 1.0 | 3.0 | 0.00 | 0.00 | 0.00 | 82 | 1012.1 |
| 20260905003443 | 64 | 198 | 0.0 | 3.0 | 0.00 | 0.00 | 0.00 | 82 | 1012.4 |
| 20260905003153 | 64 | 193 | 0.0 | 3.0 | 0.00 | 0.00 | 0.00 | 82 | 1012.2 |
| 20260905003053 | 64 | 178 | 0.0 | 4.0 | 0.00 | 0.00 | 0.00 | 82 | 1012.1 |
| 20260905002953 | 64 | 192 | 0.0 | 6.0 | 0.00 | 0.00 | 0.00 | 82 | 1012.3 |
| 20260905002853 | 64 | 191 | 1.0 | 6.0 | 0.00 | 0.00 | 0.00 | 81 | 1012.0 |
| 20260905002753 | 64 | 216 | 1.0 | 6.0 | 0.00 | 0.00 | 0.00 | 81 | 1012.1 |
| 20260905002725 | 64 | 68 | 2.0 | 6.0 | 0.00 | 0.00 | 0.00 | 81 | 1012.1 |
| 20260905002653 | 65 | 200 | 2.0 | 6.0 | 0.00 | 0.00 | 0.00 | 81 | 1012.3 |
| 20260905002553 | 65 | 199 | 0.0 | 6.0 | 0.00 | 0.00 | 0.00 | 81 | 1012.2 |
| 20260905002453 | 65 | 196 | 0.0 | 6.0 | 0.00 | 0.00 | 0.00 | 81 | 1012.2 |
| 20260905002353 | 65 | 207 | 0.0 | 6.0 | 0.00 | 0.00 | 0.00 | 80 | 1012.2 |
| 20260905002327 | 65 | 150 | 1.0 | 6.0 | 0.00 | 0.00 | 0.00 | 80 | 1012.2 |
| 20260905002314 | 65 | 177 | 0.0 | 6.0 | 0.00 | 0.00 | 0.00 | 80 | 1012.2 |
| 20260905002306 | 65 | 211 | 2.0 | 6.0 | 0.00 | 0.00 | 0.00 | 80 | 1012.2 |
| 20260905002248 | 65 | 186 | 0.0 | 3.0 | 0.00 | 0.00 | 0.00 | 80 | 1012.0 |
| 20260905002233 | 65 | 200 | 0.0 | 3.0 | 0.00 | 0.00 | 0.00 | 80 | 1011.8 |
| 20260905001726 | 65 | 213 | 2.0 | 3.0 | 0.00 | 0.00 | 0.00 | 79 | 1011.7 |
| 20260905001653 | 65 | 211 | 0.0 | 3.0 | 0.00 | 0.00 | 0.00 | 79 | 1012.0 |
| 20260905001553 | 65 | 195 | 0.0 | 3.0 | 0.00 | 0.00 | 0.00 | 79 | 1011.6 |
| 20260905001453 | 65 | 146 | 1.0 | 3.0 | 0.00 | 0.00 | 0.00 | 79 | 1011.8 |
| 20260905001414 | 65 | 232 | 2.0 | 3.0 | 0.00 | 0.00 | 0.00 | 79 | 1011.7 |
| 20260905001358 | 65 | 151 | 2.0 | 3.0 | 0.00 | 0.00 | 0.00 | 79 | 1011.9 |
| 20260905001346 | 65 | 55 | 1.0 | 3.0 | 0.00 | 0.00 | 0.00 | 79 | 1011.9 |
| 20260905001336 | 65 | 206 | 1.0 | 3.0 | 0.00 | 0.00 | 0.00 | 78 | 1011.8 |
| 20260905001101 | 65 | 58 | 1.0 | 3.0 | 0.00 | 0.00 | 0.00 | 78 | 1012.1 |
| 20260905000741 | 65 | 147 | 0.0 | 3.0 | 0.00 | 0.00 | 0.00 | 78 | 1012.3 |
| 20260905000726 | 65 | 193 | 0.0 | 3.0 | 0.00 | 0.00 | 0.00 | 78 | 1012.3 |
| 20260905000643 | 65 | 177 | 1.0 | 4.0 | 0.00 | 0.00 | 0.00 | 78 | 1012.1 |
| 20260905000541 | 65 | 181 | 1.0 | 4.0 | 0.00 | 0.00 | 0.00 | 78 | 1012.1 |
| 20260905000441 | 65 | 202 | 0.0 | 4.0 | 0.00 | 0.00 | 0.00 | 77 | 1012.0 |
| 20260905000341 | 65 | 194 | 0.0 | 4.0 | 0.00 | 0.00 | 0.00 | 77 | 1011.9 |
| 20260905000241 | 65 | 273 | 0.0 | 4.0 | 0.00 | 0.00 | 0.00 | 77 | 1011.9 |
| 20260905000226 | 65 | 196 | 0.0 | 4.0 | 0.00 | 0.00 | 0.00 | 77 | 1011.9 |
| 20260905000142 | 65 | 196 | 0.0 | 4.0 | 0.00 | 0.00 | 0.00 | 77 | 1012.1 |
| 20260905000042 | 65 | 58 | 2.0 | 4.0 | 0.00 | 0.00 | 0.00 | 77 | 1011.9 |
| 20260904235942 | 65 | 198 | 0.0 | 4.0 | 0.00 | 0.00 | 0.00 | 77 | 1011.7 |
| 20260904235842 | 65 | 155 | 0.0 | 4.0 | 0.00 | 0.00 | 0.00 | 77 | 1011.8 |
| 20260904235724 | 65 | 65 | 3.0 | 4.0 | 0.00 | 0.00 | 0.00 | 77 | 1011.8 |
| 20260904235641 | 65 | 204 | 0.0 | 4.0 | 0.00 | 0.00 | 0.00 | 77 | 1011.9 |
| 20260904235541 | 65 | 196 | 0.0 | 4.0 | 0.00 | 0.00 | 0.00 | 77 | 1011.8 |
| 20260904235441 | 65 | 143 | 1.0 | 4.0 | 0.00 | 0.00 | 0.00 | 76 | 1011.9 |
| 20260904235342 | 65 | 173 | 1.0 | 4.0 | 0.00 | 0.00 | 0.00 | 76 | 1011.8 |
| 20260904235241 | 66 | 207 | 1.0 | 4.0 | 0.00 | 0.00 | 0.00 | 76 | 1012.1 |
| 20260904235224 | 66 | 217 | 1.0 | 4.0 | 0.00 | 0.00 | 0.00 | 76 | 1012.1 |
| 20260904235141 | 66 | 138 | 1.0 | 4.0 | 0.00 | 0.00 | 0.00 | 76 | 1011.9 |
| 20260904235041 | 66 | 67 | 2.0 | 4.0 | 0.00 | 0.00 | 0.00 | 76 | 1012.1 |
| 20260904235021 | 66 | 222 | 2.0 | 4.0 | 0.00 | 0.00 | 0.00 | 76 | 1011.8 |
| 20260904235013 | 66 | 185 | 1.0 | 4.0 | 0.00 | 0.00 | 0.00 | 76 | 1011.8 |
| 20260904234957 | 66 | 204 | 1.0 | 4.0 | 0.00 | 0.00 | 0.00 | 76 | 1011.8 |
| 20260904234942 | 66 | 212 | 1.0 | 4.0 | 0.00 | 0.00 | 0.00 | 76 | 1011.8 |
| 20260904234640 | 66 | 252 | 2.0 | 4.0 | 0.00 | 0.00 | 0.00 | 75 | 1011.9 |
| 20260904234540 | 66 | 199 | 2.0 | 4.0 | 0.00 | 0.00 | 0.00 | 76 | 1011.7 |
| 20260904234441 | 66 | 116 | 2.0 | 4.0 | 0.00 | 0.00 | 0.00 | 75 | 1011.6 |
| 20260904234340 | 66 | 100 | 0.0 | 3.0 | 0.00 | 0.00 | 0.00 | 75 | 1011.7 |
| 20260904234241 | 66 | 178 | 0.0 | 3.0 | 0.00 | 0.00 | 0.00 | 75 | 1011.6 |
| 20260904234224 | 66 | 193 | 1.0 | 3.0 | 0.00 | 0.00 | 0.00 | 75 | 1011.6 |
| 20260904234159 | 66 | 214 | 2.0 | 3.0 | 0.00 | 0.00 | 0.00 | 75 | 1011.4 |
| 20260904234143 | 66 | 189 | 0.0 | 2.0 | 0.00 | 0.00 | 0.00 | 75 | 1011.6 |
| 20260904234127 | 66 | 300 | 1.0 | 2.0 | 0.00 | 0.00 | 0.00 | 75 | 1011.5 |
| 20260904234112 | 66 | 191 | 0.0 | 2.0 | 0.00 | 0.00 | 0.00 | 75 | 1011.7 |
| 20260904234043 | 66 | 169 | 0.0 | 2.0 | 0.00 | 0.00 | 0.00 | 75 | 1011.9 |
| 20260904234031 | 66 | 202 | 1.0 | 2.0 | 0.00 | 0.00 | 0.00 | 75 | 1011.9 |
| 20260904233756 | 66 | 197 | 0.0 | 2.0 | 0.00 | 0.00 | 0.00 | 75 | 1011.8 |
| 20260904233740 | 66 | 206 | 0.0 | 2.0 | 0.00 | 0.00 | 0.00 | 75 | 1011.9 |
| 20260904233508 | 66 | 200 | 1.0 | 2.0 | 0.00 | 0.00 | 0.00 | 75 | 1011.8 |
| 20260904233238 | 66 | 148 | 1.0 | 2.0 | 0.00 | 0.00 | 0.00 | 75 | 1011.8 |
| 20260904233222 | 66 | 58 | 1.0 | 2.0 | 0.00 | 0.00 | 0.00 | 75 | 1011.7 |
| 20260904233205 | 66 | 157 | 0.0 | 2.0 | 0.00 | 0.00 | 0.00 | 75 | 1011.5 |
| 20260904233148 | 66 | 193 | 1.0 | 2.0 | 0.00 | 0.00 | 0.00 | 75 | 1011.9 |
| 20260904233136 | 66 | 109 | 0.0 | 2.0 | 0.00 | 0.00 | 0.00 | 75 | 1011.9 |
| 20260904232404 | 67 | 196 | 0.0 | 3.0 | 0.00 | 0.00 | 0.00 | 75 | 1011.4 |
| 20260904232357 | 66 | 199 | 0.0 | 2.0 | 0.00 | 0.00 | 0.00 | 75 | 1012.0 |
| 20260904232341 | 66 | 170 | 0.0 | 2.0 | 0.00 | 0.00 | 0.00 | 75 | 1011.8 |
| 20260904232329 | 66 | 199 | 0.0 | 2.0 | 0.00 | 0.00 | 0.00 | 75 | 1011.8 |
| 20260904232320 | 66 | 199 | 0.0 | 2.0 | 0.00 | 0.00 | 0.00 | 75 | 1011.8 |
| 20260904232056 | 66 | 201 | 0.0 | 2.0 | 0.00 | 0.00 | 0.00 | 75 | 1011.5 |
| 20260904232039 | 66 | 61 | 2.0 | 2.0 | 0.00 | 0.00 | 0.00 | 75 | 1011.7 |
| 20260904232024 | 67 | 207 | 0.0 | 3.0 | 0.00 | 0.00 | 0.00 | 75 | 1011.7 |
| 20260904232008 | 67 | 215 | 0.0 | 3.0 | 0.00 | 0.00 | 0.00 | 75 | 1011.4 |
| 20260904231739 | 67 | 188 | 0.0 | 3.0 | 0.00 | 0.00 | 0.00 | 75 | 1011.5 |
| 20260904231723 | 67 | 190 | 0.0 | 3.0 | 0.00 | 0.00 | 0.00 | 75 | 1011.6 |
| 20260904231448 | 67 | 188 | 0.0 | 3.0 | 0.00 | 0.00 | 0.00 | 75 | 1011.4 |
| 20260904231433 | 67 | 191 | 0.0 | 3.0 | 0.00 | 0.00 | 0.00 | 75 | 1011.3 |
| 20260904231419 | 67 | 194 | 0.0 | 3.0 | 0.00 | 0.00 | 0.00 | 75 | 1011.3 |
| 20260904231409 | 67 | 202 | 0.0 | 3.0 | 0.00 | 0.00 | 0.00 | 75 | 1011.4 |
| 20260904230828 | 67 | 208 | 1.0 | 3.0 | 0.00 | 0.00 | 0.00 | 75 | 1011.1 |
| 20260904230728 | 67 | 36 | 1.0 | 2.0 | 0.00 | 0.00 | 0.00 | 75 | 1011.3 |
| 20260904230712 | 67 | 173 | 1.0 | 2.0 | 0.00 | 0.00 | 0.00 | 75 | 1011.3 |
| 20260904230628 | 67 | 166 | 1.0 | 2.0 | 0.00 | 0.00 | 0.00 | 75 | 1011.3 |
| 20260904230528 | 67 | 194 | 1.0 | 2.0 | 0.00 | 0.00 | 0.00 | 75 | 1011.4 |
| 20260904230429 | 67 | 206 | 0.0 | 2.0 | 0.00 | 0.00 | 0.00 | 75 | 1011.2 |
| 20260904230328 | 67 | 126 | 0.0 | 2.0 | 0.00 | 0.00 | 0.00 | 75 | 1011.4 |
| 20260904230212 | 67 | 191 | 0.0 | 2.0 | 0.00 | 0.00 | 0.00 | 74 | 1011.5 |
| 20260904230134 | 67 | 203 | 0.0 | 2.0 | 0.00 | 0.00 | 0.00 | 74 | 1011.3 |
| 20260904230118 | 67 | 201 | 0.0 | 2.0 | 0.00 | 0.00 | 0.00 | 74 | 1011.2 |
| 20260904225929 | 67 | 190 | 0.0 | 2.0 | 0.00 | 0.00 | 0.00 | 74 | 1011.3 |
| 20260904225830 | 67 | 203 | 0.0 | 2.0 | 0.00 | 0.00 | 0.00 | 74 | 1011.3 |
| 20260904225712 | 67 | 203 | 0.0 | 2.0 | 0.00 | 0.00 | 0.00 | 74 | 1011.1 |
| 20260904225628 | 67 | 211 | 0.0 | 2.0 | 0.00 | 0.00 | 0.00 | 74 | 1011.3 |
| 20260904225529 | 67 | 197 | 0.0 | 2.0 | 0.00 | 0.00 | 0.00 | 74 | 1011.3 |
| 20260904225506 | 67 | 220 | 2.0 | 2.0 | 0.00 | 0.00 | 0.00 | 73 | 1011.2 |
| 20260904225450 | 67 | 205 | 1.0 | 2.0 | 0.00 | 0.00 | 0.00 | 73 | 1011.5 |
| 20260904225220 | 67 | 273 | 0.0 | 7.0 | 0.00 | 0.00 | 0.00 | 73 | 1011.3 |
| 20260904225215 | 67 | 195 | 0.0 | 2.0 | 0.00 | 0.00 | 0.00 | 73 | 1011.2 |
| 20260904225204 | 67 | 128 | 2.0 | 2.0 | 0.00 | 0.00 | 0.00 | 73 | 1011.2 |
| 20260904225149 | 67 | 184 | 1.0 | 6.0 | 0.00 | 0.00 | 0.00 | 73 | 1011.4 |
| 20260904225133 | 67 | 153 | 1.0 | 6.0 | 0.00 | 0.00 | 0.00 | 73 | 1011.3 |
| 20260904225118 | 67 | 157 | 1.0 | 6.0 | 0.00 | 0.00 | 0.00 | 73 | 1011.2 |
| 20260904225102 | 67 | 201 | 0.0 | 7.0 | 0.00 | 0.00 | 0.00 | 73 | 1011.3 |
| 20260904224528 | 67 | 201 | 0.0 | 10.0 | 0.00 | 0.00 | 0.00 | 73 | 1011.1 |
| 20260904224428 | 67 | 249 | 2.0 | 10.0 | 0.00 | 0.00 | 0.00 | 73 | 1011.1 |
| 20260904224328 | 67 | 206 | 1.0 | 10.0 | 0.00 | 0.00 | 0.00 | 74 | 1011.1 |
| 20260904224212 | 67 | 151 | 1.0 | 10.0 | 0.00 | 0.00 | 0.00 | 74 | 1011.2 |
| 20260904224128 | 67 | 74 | 2.0 | 10.0 | 0.00 | 0.00 | 0.00 | 74 | 1011.2 |
| 20260904224028 | 67 | 59 | 3.0 | 10.0 | 0.00 | 0.00 | 0.00 | 74 | 1010.9 |
| 20260904223930 | 67 | 197 | 1.0 | 10.0 | 0.00 | 0.00 | 0.00 | 75 | 1011.3 |
| 20260904223830 | 68 | 168 | 0.0 | 10.0 | 0.00 | 0.00 | 0.00 | 75 | 1011.0 |
| 20260904223728 | 68 | 248 | 3.0 | 10.0 | 0.00 | 0.00 | 0.00 | 77 | 1011.1 |
| 20260904223712 | 68 | 143 | 1.0 | 4.0 | 0.00 | 0.00 | 0.00 | 77 | 1011.1 |
| 20260904223628 | 68 | 27 | 2.0 | 4.0 | 0.00 | 0.00 | 0.00 | 77 | 1010.7 |
| 20260904223603 | 69 | 107 | 1.0 | 2.0 | 0.00 | 0.00 | 0.00 | 77 | 1010.8 |
| 20260904223554 | 68 | 326 | 2.0 | 3.0 | 0.00 | 0.00 | 0.00 | 77 | 1010.8 |
| 20260904223539 | 68 | 160 | 0.0 | 3.0 | 0.00 | 0.00 | 0.00 | 78 | 1011.1 |
| 20260904223523 | 68 | 139 | 1.0 | 3.0 | 0.00 | 0.00 | 0.00 | 77 | 1010.9 |
| 20260904223251 | 68 | 196 | 0.0 | 2.0 | 0.00 | 0.00 | 0.00 | 77 | 1011.0 |
| 20260904223240 | 68 | 207 | 1.0 | 2.0 | 0.00 | 0.00 | 0.00 | 77 | 1010.8 |
| 20260904223224 | 68 | 191 | 0.0 | 2.0 | 0.00 | 0.00 | 0.00 | 77 | 1010.9 |
| 20260904223208 | 68 | 256 | 0.0 | 2.0 | 0.00 | 0.00 | 0.00 | 77 | 1010.9 |
| 20260904222931 | 68 | 107 | 1.0 | 2.0 | 0.00 | 0.00 | 0.00 | 77 | 1010.8 |
| 20260904222628 | 69 | 109 | 0.0 | 2.0 | 0.00 | 0.00 | 0.00 | 77 | 1010.8 |
| 20260904222604 | 69 | 196 | 0.0 | 2.0 | 0.00 | 0.00 | 0.00 | 77 | 1010.8 |
| 20260904222548 | 69 | 237 | 1.0 | 2.0 | 0.00 | 0.00 | 0.00 | 77 | 1010.8 |
| 20260904222532 | 69 | 183 | 1.0 | 2.0 | 0.00 | 0.00 | 0.00 | 77 | 1010.6 |
| 20260904222300 | 69 | 200 | 0.0 | 2.0 | 0.00 | 0.00 | 0.00 | 76 | 1010.6 |
| 20260904222249 | 69 | 212 | 0.0 | 2.0 | 0.00 | 0.00 | 0.00 | 76 | 1010.6 |
| 20260904222003 | 69 | 143 | 0.0 | 2.0 | 0.00 | 0.00 | 0.00 | 77 | 1010.5 |
| 20260904221948 | 69 | 239 | 1.0 | 2.0 | 0.00 | 0.00 | 0.00 | 76 | 1010.4 |
| 20260904221712 | 69 | 73 | 0.0 | 2.0 | 0.00 | 0.00 | 0.00 | 76 | 1010.5 |
| 20260904221629 | 69 | 203 | 1.0 | 2.0 | 0.00 | 0.00 | 0.00 | 76 | 1010.4 |
| 20260904221604 | 69 | 207 | 1.0 | 2.0 | 0.00 | 0.00 | 0.00 | 76 | 1010.2 |
| 20260904221549 | 69 | 188 | 0.0 | 2.0 | 0.00 | 0.00 | 0.00 | 76 | 1010.6 |
| 20260904221229 | 69 | 199 | 0.0 | 2.0 | 0.00 | 0.00 | 0.00 | 76 | 1010.4 |
| 20260904221216 | 69 | 188 | 0.0 | 2.0 | 0.00 | 0.00 | 0.00 | 76 | 1010.4 |
| 20260904221206 | 70 | 200 | 1.0 | 2.0 | 0.00 | 0.00 | 0.00 | 76 | 1010.4 |
| 20260904221149 | 70 | 180 | 0.0 | 2.0 | 0.00 | 0.00 | 0.00 | 76 | 1010.5 |
| 20260904220914 | 70 | 192 | 0.0 | 2.0 | 0.00 | 0.00 | 0.00 | 77 | 1010.5 |
| 20260904220858 | 70 | 246 | 1.0 | 2.0 | 0.00 | 0.00 | 0.00 | 77 | 1010.2 |
| 20260904220845 | 70 | 103 | 1.0 | 2.0 | 0.00 | 0.00 | 0.00 | 77 | 1010.2 |
| 20260904220528 | 70 | 133 | 0.0 | 2.0 | 0.00 | 0.00 | 0.00 | 76 | 1010.2 |
| 20260904220510 | 71 | 197 | 0.0 | 4.0 | 0.00 | 0.00 | 0.00 | 76 | 1010.5 |
| 20260904220501 | 70 | 186 | 1.0 | 2.0 | 0.00 | 0.00 | 0.00 | 76 | 1010.2 |
| 20260904220446 | 71 | 212 | 1.0 | 4.0 | 0.00 | 0.00 | 0.00 | 76 | 1010.6 |
| 20260904220430 | 71 | 197 | 0.0 | 4.0 | 0.00 | 0.00 | 0.00 | 76 | 1010.5 |
| 20260904220128 | 71 | 180 | 0.0 | 4.0 | 0.00 | 0.00 | 0.00 | 76 | 1010.6 |
| 20260904220029 | 71 | 119 | 1.0 | 4.0 | 0.00 | 0.00 | 0.00 | 76 | 1010.2 |
| 20260904215928 | 71 | 199 | 0.0 | 4.0 | 0.00 | 0.00 | 0.00 | 76 | 1010.0 |
| 20260904215829 | 71 | 201 | 0.0 | 4.0 | 0.00 | 0.00 | 0.00 | 75 | 1010.4 |
| 20260904215728 | 71 | 196 | 1.0 | 4.0 | 0.00 | 0.00 | 0.00 | 75 | 1010.2 |
| 20260904215712 | 71 | 82 | 0.0 | 4.0 | 0.00 | 0.00 | 0.00 | 75 | 1010.2 |
| 20260904215628 | 71 | 194 | 0.0 | 4.0 | 0.00 | 0.00 | 0.00 | 75 | 1010.1 |
| 20260904215529 | 71 | 192 | 1.0 | 4.0 | 0.00 | 0.00 | 0.00 | 75 | 1009.9 |
| 20260904215428 | 71 | 183 | 0.0 | 4.0 | 0.00 | 0.00 | 0.00 | 75 | 1009.9 |
| 20260904215403 | 71 | 28 | 1.0 | 3.0 | 0.00 | 0.00 | 0.00 | 75 | 1010.0 |
| 20260904215347 | 71 | 78 | 1.0 | 3.0 | 0.00 | 0.00 | 0.00 | 75 | 1009.8 |
| 20260904215335 | 71 | 94 | 1.0 | 3.0 | 0.00 | 0.00 | 0.00 | 75 | 1009.8 |
| 20260904215325 | 72 | 166 | 0.0 | 3.0 | 0.00 | 0.00 | 0.00 | 75 | 1009.7 |
| 20260904215309 | 72 | 203 | 0.0 | 4.0 | 0.00 | 0.00 | 0.00 | 75 | 1009.9 |
| 20260904214729 | 72 | 172 | 1.0 | 7.0 | 0.00 | 0.00 | 0.00 | 75 | 1009.8 |
| 20260904214713 | 72 | 214 | 1.0 | 7.0 | 0.00 | 0.00 | 0.00 | 75 | 1009.8 |
| 20260904214629 | 72 | 201 | 0.0 | 7.0 | 0.00 | 0.00 | 0.00 | 75 | 1009.9 |
| 20260904214529 | 72 | 190 | 0.0 | 7.0 | 0.00 | 0.00 | 0.00 | 75 | 1009.6 |
| 20260904214429 | 72 | 186 | 0.0 | 7.0 | 0.00 | 0.00 | 0.00 | 74 | 1009.6 |
| 20260904214328 | 72 | 206 | 0.0 | 7.0 | 0.00 | 0.00 | 0.00 | 74 | 1009.7 |
| 20260904214258 | 72 | 301 | 1.0 | 7.0 | 0.00 | 0.00 | 0.00 | 74 | 1009.8 |
| 20260904214248 | 72 | 109 | 2.0 | 7.0 | 0.00 | 0.00 | 0.00 | 74 | 1009.6 |
| 20260904213928 | 72 | 198 | 0.0 | 7.0 | 0.00 | 0.00 | 0.00 | 74 | 1009.7 |
| 20260904213829 | 73 | 22 | 3.0 | 7.0 | 0.00 | 0.00 | 0.00 | 73 | 1009.3 |
| 20260904213728 | 73 | 211 | 1.0 | 4.0 | 0.00 | 0.00 | 0.00 | 73 | 1009.5 |
| 20260904213712 | 73 | 196 | 0.0 | 4.0 | 0.00 | 0.00 | 0.00 | 73 | 1009.5 |
| 20260904213630 | 73 | 204 | 1.0 | 4.0 | 0.00 | 0.00 | 0.00 | 73 | 1009.6 |
| 20260904213528 | 73 | 203 | 0.0 | 4.0 | 0.00 | 0.00 | 0.00 | 73 | 1009.3 |
| 20260904213429 | 73 | 171 | 0.0 | 4.0 | 0.00 | 0.00 | 0.00 | 73 | 1009.7 |
| 20260904213328 | 73 | 192 | 0.0 | 4.0 | 0.00 | 0.00 | 0.00 | 73 | 1009.6 |
| 20260904213310 | 73 | 218 | 1.0 | 4.0 | 0.00 | 0.00 | 0.00 | 73 | 1009.4 |
| 20260904213258 | 73 | 173 | 0.0 | 4.0 | 0.00 | 0.00 | 0.00 | 73 | 1009.4 |
| 20260904213248 | 73 | 104 | 1.0 | 4.0 | 0.00 | 0.00 | 0.00 | 72 | 1009.4 |
| 20260904212928 | 73 | 245 | 0.0 | 3.0 | 0.00 | 0.00 | 0.00 | 72 | 1009.4 |
| 20260904212912 | 73 | 199 | 1.0 | 3.0 | 0.00 | 0.00 | 0.00 | 72 | 1009.5 |
| 20260904212857 | 73 | 130 | 1.0 | 3.0 | 0.00 | 0.00 | 0.00 | 72 | 1009.4 |
| 20260904212843 | 73 | 189 | 1.0 | 3.0 | 0.00 | 0.00 | 0.00 | 72 | 1009.4 |
| 20260904212528 | 73 | 194 | 0.0 | 3.0 | 0.00 | 0.00 | 0.00 | 71 | 1009.5 |
| 20260904212429 | 73 | 190 | 0.0 | 3.0 | 0.00 | 0.00 | 0.00 | 71 | 1009.4 |
| 20260904212328 | 73 | 147 | 1.0 | 3.0 | 0.00 | 0.00 | 0.00 | 71 | 1009.5 |
| 20260904212213 | 73 | 194 | 1.0 | 3.0 | 0.00 | 0.00 | 0.00 | 71 | 1009.2 |
| 20260904212128 | 73 | 164 | 1.0 | 3.0 | 0.00 | 0.00 | 0.00 | 71 | 1009.4 |
| 20260904212029 | 73 | 176 | 1.0 | 3.0 | 0.00 | 0.00 | 0.00 | 70 | 1009.0 |
| 20260904211928 | 74 | 178 | 0.0 | 3.0 | 0.00 | 0.00 | 0.00 | 70 | 1008.6 |
| 20260904211912 | 74 | 201 | 0.0 | 6.0 | 0.00 | 0.00 | 0.00 | 70 | 1008.4 |
| 20260904211857 | 74 | 190 | 0.0 | 6.0 | 0.00 | 0.00 | 0.00 | 69 | 1008.3 |
| 20260904211843 | 74 | 186 | 0.0 | 6.0 | 0.00 | 0.00 | 0.00 | 69 | 1008.3 |
| 20260904211528 | 74 | 171 | 1.0 | 7.0 | 0.00 | 0.00 | 0.00 | 69 | 1008.3 |
| 20260904211429 | 74 | 164 | 2.0 | 7.0 | 0.00 | 0.00 | 0.00 | 69 | 1007.9 |
| 20260904211329 | 74 | 208 | 0.0 | 7.0 | 0.00 | 0.00 | 0.00 | 69 | 1008.1 |
| 20260904211228 | 74 | 238 | 3.0 | 7.0 | 0.00 | 0.00 | 0.00 | 69 | 1008.0 |
| 20260904211213 | 73 | 238 | 3.0 | 7.0 | 0.00 | 0.00 | 0.00 | 69 | 1008.0 |
| 20260904211128 | 73 | 198 | 0.0 | 7.0 | 0.00 | 0.00 | 0.00 | 70 | 1008.2 |
| 20260904211028 | 73 | 184 | 0.0 | 8.0 | 0.00 | 0.00 | 0.00 | 69 | 1008.2 |
| 20260904210929 | 73 | 207 | 1.0 | 8.0 | 0.00 | 0.00 | 0.00 | 69 | 1007.9 |
| 20260904210828 | 73 | 237 | 1.0 | 8.0 | 0.00 | 0.00 | 0.00 | 70 | 1008.0 |
| 20260904210728 | 73 | 129 | 2.0 | 9.0 | 0.00 | 0.00 | 0.00 | 70 | 1008.2 |
| 20260904210712 | 73 | 201 | 0.0 | 9.0 | 0.00 | 0.00 | 0.00 | 70 | 1008.2 |
| 20260904210629 | 73 | 209 | 5.0 | 9.0 | 0.00 | 0.00 | 0.00 | 70 | 1008.1 |
| 20260904210528 | 73 | 269 | 2.0 | 9.0 | 0.00 | 0.00 | 0.00 | 70 | 1008.3 |
| 20260904210428 | 73 | 219 | 0.0 | 9.0 | 0.00 | 0.00 | 0.00 | 70 | 1008.2 |
| 20260904210328 | 73 | 237 | 2.0 | 9.0 | 0.00 | 0.00 | 0.00 | 70 | 1008.3 |
| 20260904210212 | 73 | 240 | 3.0 | 9.0 | 0.00 | 0.00 | 0.00 | 70 | 1008.0 |
| 20260904210128 | 73 | 243 | 4.0 | 9.0 | 0.00 | 0.00 | 0.00 | 70 | 1008.1 |
| 20260904210028 | 73 | 198 | 0.0 | 9.0 | 0.00 | 0.00 | 0.00 | 70 | 1008.2 |
| 20260904205928 | 73 | 328 | 1.0 | 9.0 | 0.00 | 0.00 | 0.00 | 70 | 1008.3 |
| 20260904205828 | 73 | 203 | 0.0 | 10.0 | 0.00 | 0.00 | 0.00 | 70 | 1008.3 |
| 20260904205712 | 73 | 262 | 1.0 | 10.0 | 0.00 | 0.00 | 0.00 | 70 | 1008.5 |
| 20260904205628 | 73 | 219 | 2.0 | 10.0 | 0.00 | 0.00 | 0.00 | 70 | 1008.7 |
| 20260904205528 | 73 | 219 | 0.0 | 10.0 | 0.00 | 0.00 | 0.00 | 70 | 1008.3 |
| 20260904205428 | 73 | 223 | 0.0 | 10.0 | 0.00 | 0.00 | 0.00 | 70 | 1008.4 |
| 20260904205329 | 73 | 206 | 1.0 | 10.0 | 0.00 | 0.00 | 0.00 | 70 | 1008.4 |
| 20260904205301 | 73 | 206 | 0.0 | 10.0 | 0.00 | 0.00 | 0.00 | 70 | 1008.4 |
| 20260904205249 | 73 | 210 | 0.0 | 10.0 | 0.00 | 0.00 | 0.00 | 70 | 1008.4 |
| 20260904205239 | 73 | 242 | 2.0 | 10.0 | 0.00 | 0.00 | 0.00 | 70 | 1008.4 |
| 20260904205224 | 73 | 235 | 1.0 | 10.0 | 0.00 | 0.00 | 0.00 | 70 | 1008.6 |
| 20260904204948 | 73 | 182 | 1.0 | 8.0 | 0.00 | 0.00 | 0.00 | 70 | 1008.4 |
| 20260904204713 | 73 | 256 | 0.0 | 8.0 | 0.00 | 0.00 | 0.00 | 70 | 1008.4 |
| 20260904204628 | 73 | 174 | 0.0 | 8.0 | 0.00 | 0.00 | 0.00 | 70 | 1008.2 |
| 20260904204529 | 73 | 221 | 0.0 | 8.0 | 0.00 | 0.00 | 0.00 | 71 | 1008.3 |
| 20260904204428 | 73 | 187 | 1.0 | 8.0 | 0.00 | 0.00 | 0.00 | 70 | 1008.4 |
| 20260904204328 | 73 | 210 | 1.0 | 8.0 | 0.00 | 0.00 | 0.00 | 71 | 1008.3 |
| 20260904204212 | 73 | 229 | 2.0 | 8.0 | 0.00 | 0.00 | 0.00 | 71 | 1008.3 |
| 20260904204129 | 73 | 215 | 0.0 | 3.0 | 0.00 | 0.00 | 0.00 | 71 | 1008.4 |
| 20260904204028 | 73 | 181 | 1.0 | 3.0 | 0.00 | 0.00 | 0.00 | 71 | 1008.4 |
| 20260904203929 | 73 | 219 | 0.0 | 3.0 | 0.00 | 0.00 | 0.00 | 71 | 1008.1 |
| 20260904203828 | 73 | 200 | 0.0 | 3.0 | 0.00 | 0.00 | 0.00 | 71 | 1008.3 |
| 20260904203729 | 73 | 252 | 1.0 | 4.0 | 0.00 | 0.00 | 0.00 | 71 | 1008.3 |
| 20260904203715 | 73 | 244 | 0.0 | 4.0 | 0.00 | 0.00 | 0.00 | 71 | 1008.3 |
| 20260904203704 | 73 | 208 | 1.0 | 4.0 | 0.00 | 0.00 | 0.00 | 71 | 1008.2 |
| 20260904203648 | 73 | 218 | 1.0 | 4.0 | 0.00 | 0.00 | 0.00 | 71 | 1008.2 |
| 20260904203329 | 73 | 203 | 2.0 | 4.0 | 0.00 | 0.00 | 0.00 | 71 | 1008.1 |
| 20260904203228 | 73 | 196 | 0.0 | 6.0 | 0.00 | 0.00 | 0.00 | 71 | 1007.9 |
| 20260904203212 | 73 | 222 | 2.0 | 6.0 | 0.00 | 0.00 | 0.00 | 71 | 1007.9 |
| 20260904203128 | 73 | 166 | 0.0 | 6.0 | 0.00 | 0.00 | 0.00 | 71 | 1008.1 |
| 20260904203028 | 73 | 136 | 0.0 | 6.0 | 0.00 | 0.00 | 0.00 | 71 | 1008.1 |
| 20260904202928 | 73 | 204 | 0.0 | 6.0 | 0.00 | 0.00 | 0.00 | 71 | 1008.3 |
| 20260904202912 | 73 | 204 | 0.0 | 6.0 | 0.00 | 0.00 | 0.00 | 71 | 1008.2 |
| 20260904202857 | 73 | 205 | 1.0 | 6.0 | 0.00 | 0.00 | 0.00 | 71 | 1008.1 |
| 20260904202843 | 73 | 127 | 0.0 | 6.0 | 0.00 | 0.00 | 0.00 | 71 | 1008.1 |
| 20260904202529 | 73 | 200 | 0.0 | 6.0 | 0.00 | 0.00 | 0.00 | 71 | 1008.0 |
| 20260904202428 | 73 | 71 | 1.0 | 6.0 | 0.00 | 0.00 | 0.00 | 71 | 1008.2 |
| 20260904202328 | 73 | 243 | 2.0 | 6.0 | 0.00 | 0.00 | 0.00 | 71 | 1008.3 |
| 20260904202212 | 73 | 225 | 1.0 | 4.0 | 0.00 | 0.00 | 0.00 | 71 | 1008.2 |
| 20260904202128 | 73 | 230 | 2.0 | 4.0 | 0.00 | 0.00 | 0.00 | 71 | 1008.2 |
| 20260904202030 | 73 | 206 | 2.0 | 4.0 | 0.00 | 0.00 | 0.00 | 71 | 1008.2 |
| 20260904201929 | 73 | 221 | 1.0 | 6.0 | 0.00 | 0.00 | 0.00 | 71 | 1008.2 |
| 20260904201828 | 73 | 238 | 2.0 | 6.0 | 0.00 | 0.00 | 0.00 | 71 | 1008.4 |
| 20260904201729 | 73 | 236 | 1.0 | 6.0 | 0.00 | 0.00 | 0.00 | 71 | 1008.2 |
| 20260904201713 | 73 | 229 | 1.0 | 6.0 | 0.00 | 0.00 | 0.00 | 71 | 1008.2 |
| 20260904201629 | 73 | 183 | 0.0 | 6.0 | 0.00 | 0.00 | 0.00 | 72 | 1008.4 |
| 20260904201528 | 73 | 205 | 0.0 | 6.0 | 0.00 | 0.00 | 0.00 | 72 | 1008.3 |
| 20260904201511 | 73 | 223 | 0.0 | 6.0 | 0.00 | 0.00 | 0.00 | 72 | 1008.3 |
| 20260904201502 | 73 | 214 | 1.0 | 6.0 | 0.00 | 0.00 | 0.00 | 71 | 1008.3 |
| 20260904201445 | 73 | 228 | 0.0 | 6.0 | 0.00 | 0.00 | 0.00 | 72 | 1008.5 |
| 20260904201428 | 73 | 194 | 2.0 | 6.0 | 0.00 | 0.00 | 0.00 | 72 | 1008.3 |
| 20260904201129 | 73 | 170 | 0.0 | 6.0 | 0.00 | 0.00 | 0.00 | 72 | 1008.5 |
| 20260904201030 | 73 | 214 | 2.0 | 4.0 | 0.00 | 0.00 | 0.00 | 72 | 1008.2 |
| 20260904200928 | 73 | 210 | 0.0 | 6.0 | 0.00 | 0.00 | 0.00 | 71 | 1008.4 |
| 20260904200829 | 73 | 211 | 0.0 | 6.0 | 0.00 | 0.00 | 0.00 | 71 | 1008.6 |
| 20260904200728 | 73 | 219 | 1.0 | 6.0 | 0.00 | 0.00 | 0.00 | 72 | 1008.4 |
| 20260904200712 | 73 | 206 | 0.0 | 6.0 | 0.00 | 0.00 | 0.00 | 72 | 1008.4 |
| 20260904200629 | 73 | 206 | 1.0 | 6.0 | 0.00 | 0.00 | 0.00 | 72 | 1008.4 |
| 20260904200528 | 73 | 204 | 0.0 | 6.0 | 0.00 | 0.00 | 0.00 | 72 | 1008.6 |
| 20260904200428 | 73 | 243 | 1.0 | 6.0 | 0.00 | 0.00 | 0.00 | 72 | 1008.6 |
| 20260904200412 | 73 | 234 | 1.0 | 6.0 | 0.00 | 0.00 | 0.00 | 72 | 1008.5 |
| 20260904200343 | 73 | 213 | 2.0 | 6.0 | 0.00 | 0.00 | 0.00 | 72 | 1008.6 |
| 20260904200029 | 73 | 219 | 1.0 | 6.0 | 0.00 | 0.00 | 0.00 | 72 | 1008.4 |
| 20260904195928 | 73 | 234 | 4.0 | 4.0 | 0.00 | 0.00 | 0.00 | 72 | 1008.4 |
| 20260904195829 | 73 | 201 | 0.0 | 4.0 | 0.00 | 0.00 | 0.00 | 72 | 1008.7 |
| 20260904195813 | 73 | 205 | 1.0 | 4.0 | 0.00 | 0.00 | 0.00 | 72 | 1008.4 |
| 20260904195758 | 73 | 222 | 2.0 | 4.0 | 0.00 | 0.00 | 0.00 | 72 | 1008.4 |
| 20260904195748 | 73 | 190 | 0.0 | 4.0 | 0.00 | 0.00 | 0.00 | 72 | 1008.6 |
| 20260904195428 | 73 | 196 | 0.0 | 6.0 | 0.00 | 0.00 | 0.00 | 71 | 1008.7 |
| 20260904195329 | 73 | 199 | 0.0 | 6.0 | 0.00 | 0.00 | 0.00 | 71 | 1008.6 |
| 20260904195229 | 73 | 195 | 0.0 | 7.0 | 0.00 | 0.00 | 0.00 | 71 | 1008.6 |
| 20260904195212 | 73 | 209 | 0.0 | 7.0 | 0.00 | 0.00 | 0.00 | 71 | 1008.6 |
| 20260904195129 | 73 | 223 | 1.0 | 7.0 | 0.00 | 0.00 | 0.00 | 71 | 1008.8 |
| 20260904195028 | 73 | 204 | 0.0 | 7.0 | 0.00 | 0.00 | 0.00 | 71 | 1008.5 |
| 20260904194929 | 73 | 151 | 2.0 | 7.0 | 0.00 | 0.00 | 0.00 | 71 | 1008.5 |
| 20260904194829 | 73 | 184 | 0.0 | 7.0 | 0.00 | 0.00 | 0.00 | 71 | 1008.6 |
| 20260904194729 | 73 | 188 | 0.0 | 7.0 | 0.00 | 0.00 | 0.00 | 71 | 1008.5 |
| 20260904194712 | 73 | 211 | 1.0 | 7.0 | 0.00 | 0.00 | 0.00 | 71 | 1008.5 |
| 20260904194628 | 73 | 233 | 1.0 | 7.0 | 0.00 | 0.00 | 0.00 | 71 | 1008.5 |
| 20260904194604 | 73 | 205 | 0.0 | 7.0 | 0.00 | 0.00 | 0.00 | 71 | 1008.6 |
| 20260904194548 | 73 | 222 | 3.0 | 7.0 | 0.00 | 0.00 | 0.00 | 71 | 1008.7 |
| 20260904194213 | 73 | 234 | 1.0 | 7.0 | 0.00 | 0.00 | 0.00 | 71 | 1008.5 |
| 20260904194203 | 73 | 178 | 0.0 | 7.0 | 0.00 | 0.00 | 0.00 | 71 | 1008.7 |
| 20260904194147 | 73 | 196 | 1.0 | 7.0 | 0.00 | 0.00 | 0.00 | 71 | 1008.7 |
| 20260904193828 | 73 | 192 | 0.0 | 7.0 | 0.00 | 0.00 | 0.00 | 71 | 1008.7 |
| 20260904193728 | 73 | 253 | 3.0 | 9.0 | 0.00 | 0.00 | 0.00 | 71 | 1008.6 |
| 20260904193712 | 73 | 220 | 2.0 | 9.0 | 0.00 | 0.00 | 0.00 | 71 | 1008.6 |
| 20260904193628 | 73 | 203 | 0.0 | 9.0 | 0.00 | 0.00 | 0.00 | 71 | 1008.8 |
| 20260904193528 | 73 | 210 | 2.0 | 11.0 | 0.00 | 0.00 | 0.00 | 71 | 1008.9 |
| 20260904193508 | 73 | 237 | 2.0 | 11.0 | 0.00 | 0.00 | 0.00 | 72 | 1008.7 |
| 20260904193500 | 73 | 221 | 1.0 | 11.0 | 0.00 | 0.00 | 0.00 | 72 | 1008.8 |
| 20260904193444 | 73 | 212 | 1.0 | 11.0 | 0.00 | 0.00 | 0.00 | 72 | 1008.6 |
| 20260904193428 | 73 | 165 | 1.0 | 11.0 | 0.00 | 0.00 | 0.00 | 72 | 1008.7 |
| 20260904193129 | 73 | 201 | 0.0 | 11.0 | 0.00 | 0.00 | 0.00 | 72 | 1008.7 |
| 20260904193022 | 73 | 263 | 1.0 | 11.0 | 0.00 | 0.00 | 0.00 | 72 | 1008.7 |
| 20260904192916 | 73 | 232 | 2.0 | 11.0 | 0.00 | 0.00 | 0.00 | 72 | 1008.7 |
| 20260904192818 | 73 | 231 | 2.0 | 11.0 | 0.00 | 0.00 | 0.00 | 72 | 1008.7 |
| 20260904192716 | 73 | 229 | 2.0 | 11.0 | 0.00 | 0.00 | 0.00 | 72 | 1008.7 |
| 20260904192618 | 73 | 168 | 4.0 | 11.0 | 0.00 | 0.00 | 0.00 | 72 | 1008.8 |
| 20260904192516 | 73 | 257 | 4.0 | 10.0 | 0.00 | 0.00 | 0.00 | 72 | 1008.6 |
| 20260904192416 | 73 | 228 | 3.0 | 10.0 | 0.00 | 0.00 | 0.00 | 72 | 1008.8 |
| 20260904192318 | 73 | 230 | 3.0 | 10.0 | 0.00 | 0.00 | 0.00 | 72 | 1008.6 |
| 20260904192255 | 73 | 217 | 3.0 | 10.0 | 0.00 | 0.00 | 0.00 | 72 | 1008.6 |
| 20260904192240 | 73 | 230 | 1.0 | 10.0 | 0.00 | 0.00 | 0.00 | 72 | 1008.7 |
| 20260904191916 | 73 | 252 | 5.0 | 10.0 | 0.00 | 0.00 | 0.00 | 72 | 1008.7 |
| 20260904191818 | 73 | 231 | 7.0 | 10.0 | 0.00 | 0.00 | 0.00 | 72 | 1008.8 |
| 20260904191716 | 73 | 245 | 2.0 | 7.0 | 0.00 | 0.00 | 0.00 | 72 | 1008.6 |
| 20260904191616 | 73 | 201 | 1.0 | 7.0 | 0.00 | 0.00 | 0.00 | 72 | 1008.9 |
| 20260904191516 | 73 | 262 | 2.0 | 7.0 | 0.00 | 0.00 | 0.00 | 72 | 1008.7 |
| 20260904191416 | 73 | 256 | 2.0 | 7.0 | 0.00 | 0.00 | 0.00 | 72 | 1008.9 |
| 20260904191316 | 73 | 200 | 0.0 | 7.0 | 0.00 | 0.00 | 0.00 | 72 | 1008.7 |
| 20260904191216 | 73 | 211 | 2.0 | 7.0 | 0.00 | 0.00 | 0.00 | 72 | 1008.6 |
| 20260904191116 | 73 | 207 | 2.0 | 7.0 | 0.00 | 0.00 | 0.00 | 72 | 1008.7 |
| 20260904191016 | 73 | 228 | 0.0 | 7.0 | 0.00 | 0.00 | 0.00 | 72 | 1008.9 |
| 20260904190917 | 73 | 206 | 0.0 | 7.0 | 0.00 | 0.00 | 0.00 | 72 | 1008.8 |
| 20260904190817 | 73 | 230 | 2.0 | 7.0 | 0.00 | 0.00 | 0.00 | 72 | 1008.9 |
| 20260904190716 | 73 | 262 | 2.0 | 6.0 | 0.00 | 0.00 | 0.00 | 72 | 1009.1 |
| 20260904190615 | 73 | 185 | 1.0 | 6.0 | 0.00 | 0.00 | 0.00 | 72 | 1008.9 |
| 20260904190551 | 73 | 200 | 0.0 | 6.0 | 0.00 | 0.00 | 0.00 | 72 | 1008.8 |
| 20260904190536 | 73 | 224 | 1.0 | 6.0 | 0.00 | 0.00 | 0.00 | 72 | 1009.0 |
| 20260904190216 | 73 | 267 | 1.0 | 6.0 | 0.00 | 0.00 | 0.00 | 72 | 1009.0 |
| 20260904190117 | 73 | 216 | 1.0 | 6.0 | 0.00 | 0.00 | 0.00 | 72 | 1008.8 |
| 20260904190031 | 72 | 205 | 0.0 | 3.0 | 0.00 | 0.00 | 0.00 | 74 | 1009.6 |
| 20260904190027 | 72 | 216 | 1.0 | 2.0 | 0.00 | 0.00 | 0.00 | 73 | 1009.2 |
| 20260904190020 | 73 | 219 | 3.0 | 6.0 | 0.00 | 0.00 | 0.00 | 72 | 1009.0 |
| 20260904190005 | 73 | 237 | 1.0 | 6.0 | 0.00 | 0.00 | 0.00 | 72 | 1008.8 |
| 20260904185948 | 73 | 194 | 1.0 | 6.0 | 0.00 | 0.00 | 0.00 | 72 | 1008.7 |
| 20260904185924 | 73 | 216 | 2.0 | 7.0 | 0.00 | 0.00 | 0.00 | 72 | 1008.9 |
| 20260904185648 | 73 | 220 | 2.0 | 7.0 | 0.00 | 0.00 | 0.00 | 72 | 1008.9 |
| 20260904185410 | 73 | 192 | 1.0 | 7.0 | 0.00 | 0.00 | 0.00 | 72 | 1009.1 |
| 20260904185347 | 73 | 198 | 0.0 | 7.0 | 0.00 | 0.00 | 0.00 | 73 | 1009.0 |
| 20260904185110 | 73 | 198 | 0.0 | 7.0 | 0.00 | 0.00 | 0.00 | 73 | 1009.1 |
| 20260904185056 | 73 | 190 | 0.0 | 7.0 | 0.00 | 0.00 | 0.00 | 73 | 1009.0 |
| 20260904185041 | 73 | 167 | 1.0 | 7.0 | 0.00 | 0.00 | 0.00 | 73 | 1009.2 |
| 20260904185016 | 73 | 192 | 0.0 | 6.0 | 0.00 | 0.00 | 0.00 | 73 | 1009.3 |
| 20260904185001 | 73 | 210 | 0.0 | 6.0 | 0.00 | 0.00 | 0.00 | 73 | 1009.1 |
| 20260904184945 | 73 | 201 | 0.0 | 6.0 | 0.00 | 0.00 | 0.00 | 73 | 1009.3 |
| 20260904184929 | 73 | 202 | 0.0 | 6.0 | 0.00 | 0.00 | 0.00 | 73 | 1009.2 |
| 20260904184912 | 73 | 224 | 0.0 | 6.0 | 0.00 | 0.00 | 0.00 | 73 | 1009.1 |
| 20260904184646 | 73 | 194 | 0.0 | 6.0 | 0.00 | 0.00 | 0.00 | 73 | 1009.1 |
| 20260904184630 | 73 | 197 | 0.0 | 6.0 | 0.00 | 0.00 | 0.00 | 73 | 1009.3 |
| 20260904184614 | 73 | 208 | 1.0 | 6.0 | 0.00 | 0.00 | 0.00 | 73 | 1009.3 |
| 20260904184115 | 72 | 216 | 1.0 | 2.0 | 0.00 | 0.00 | 0.00 | 73 | 1009.2 |
| 20260904183640 | 72 | 177 | 0.0 | 2.0 | 0.00 | 0.00 | 0.00 | 73 | 1009.2 |
| 20260904183625 | 72 | 196 | 0.0 | 2.0 | 0.00 | 0.00 | 0.00 | 73 | 1009.4 |
| 20260904183609 | 72 | 217 | 2.0 | 2.0 | 0.00 | 0.00 | 0.00 | 74 | 1009.3 |
| 20260904183553 | 72 | 199 | 0.0 | 2.0 | 0.00 | 0.00 | 0.00 | 74 | 1009.5 |
| 20260904183531 | 72 | 198 | 1.0 | 2.0 | 0.00 | 0.00 | 0.00 | 73 | 1009.4 |
| 20260904183515 | 72 | 205 | 0.0 | 2.0 | 0.00 | 0.00 | 0.00 | 73 | 1009.1 |
| 20260904183459 | 72 | 203 | 0.0 | 2.0 | 0.00 | 0.00 | 0.00 | 73 | 1009.7 |
| 20260904183444 | 72 | 204 | 0.0 | 2.0 | 0.00 | 0.00 | 0.00 | 73 | 1009.7 |
| 20260904182735 | 72 | 194 | 0.0 | 3.0 | 0.00 | 0.00 | 0.00 | 74 | 1009.4 |
| 20260904182720 | 72 | 198 | 0.0 | 3.0 | 0.00 | 0.00 | 0.00 | 74 | 1009.5 |
| 20260904182703 | 72 | 196 | 0.0 | 3.0 | 0.00 | 0.00 | 0.00 | 73 | 1009.8 |
| 20260904182217 | 73 | 199 | 0.0 | 3.0 | 0.00 | 0.00 | 0.00 | 73 | 1009.6 |
| 20260904182115 | 73 | 199 | 0.0 | 3.0 | 0.00 | 0.00 | 0.00 | 73 | 1009.5 |
| 20260904182017 | 73 | 203 | 0.0 | 3.0 | 0.00 | 0.00 | 0.00 | 73 | 1009.7 |
| 20260904181916 | 73 | 206 | 0.0 | 3.0 | 0.00 | 0.00 | 0.00 | 73 | 1009.8 |
| 20260904181816 | 73 | 205 | 0.0 | 3.0 | 0.00 | 0.00 | 0.00 | 73 | 1009.8 |
| 20260904181716 | 73 | 205 | 0.0 | 2.0 | 0.00 | 0.00 | 0.00 | 73 | 1009.7 |
| 20260904181616 | 73 | 199 | 0.0 | 2.0 | 0.00 | 0.00 | 0.00 | 73 | 1010.0 |
| 20260904181515 | 73 | 194 | 0.0 | 2.0 | 0.00 | 0.00 | 0.00 | 73 | 1009.7 |
| 20260904181416 | 73 | 200 | 0.0 | 3.0 | 0.00 | 0.00 | 0.00 | 73 | 1009.8 |
| 20260904181318 | 73 | 155 | 1.0 | 3.0 | 0.00 | 0.00 | 0.00 | 73 | 1009.8 |
| 20260904181217 | 73 | 194 | 0.0 | 3.0 | 0.00 | 0.00 | 0.00 | 73 | 1009.8 |
| 20260904181116 | 73 | 197 | 0.0 | 3.0 | 0.00 | 0.00 | 0.00 | 73 | 1009.7 |
| 20260904181054 | 73 | 194 | 0.0 | 3.0 | 0.00 | 0.00 | 0.00 | 73 | 1009.6 |
| 20260904181038 | 73 | 194 | 0.0 | 3.0 | 0.00 | 0.00 | 0.00 | 73 | 1009.8 |
| 20260904180715 | 73 | 185 | 0.0 | 3.0 | 0.00 | 0.00 | 0.00 | 73 | 1009.8 |
| 20260904180653 | 73 | 204 | 1.0 | 3.0 | 0.00 | 0.00 | 0.00 | 73 | 1009.8 |
| 20260904180637 | 73 | 194 | 0.0 | 3.0 | 0.00 | 0.00 | 0.00 | 73 | 1009.7 |
| 20260904180318 | 73 | 199 | 0.0 | 2.0 | 0.00 | 0.00 | 0.00 | 73 | 1009.7 |
| 20260904180216 | 73 | 195 | 0.0 | 2.0 | 0.00 | 0.00 | 0.00 | 72 | 1009.8 |
| 20260904180116 | 73 | 187 | 0.0 | 2.0 | 0.00 | 0.00 | 0.00 | 72 | 1009.7 |
| 20260904180016 | 73 | 221 | 0.0 | 2.0 | 0.00 | 0.00 | 0.00 | 72 | 1009.6 |
| 20260904175917 | 73 | 203 | 0.0 | 2.0 | 0.00 | 0.00 | 0.00 | 72 | 1009.6 |
| 20260904175818 | 73 | 194 | 0.0 | 2.0 | 0.00 | 0.00 | 0.00 | 72 | 1009.7 |
| 20260904175716 | 73 | 192 | 0.0 | 2.0 | 0.00 | 0.00 | 0.00 | 72 | 1009.6 |
| 20260904175616 | 73 | 209 | 1.0 | 2.0 | 0.00 | 0.00 | 0.00 | 72 | 1009.5 |
| 20260904175517 | 73 | 186 | 0.0 | 2.0 | 0.00 | 0.00 | 0.00 | 72 | 1009.6 |
| 20260904175416 | 73 | 201 | 0.0 | 2.0 | 0.00 | 0.00 | 0.00 | 72 | 1009.7 |
| 20260904175316 | 73 | 205 | 0.0 | 2.0 | 0.00 | 0.00 | 0.00 | 72 | 1009.7 |
| 20260904175216 | 73 | 199 | 0.0 | 2.0 | 0.00 | 0.00 | 0.00 | 72 | 1009.7 |
| 20260904175116 | 73 | 199 | 0.0 | 2.0 | 0.00 | 0.00 | 0.00 | 72 | 1009.6 |
| 20260904175045 | 73 | 197 | 0.0 | 2.0 | 0.00 | 0.00 | 0.00 | 72 | 1009.6 |
| 20260904175029 | 73 | 198 | 0.0 | 2.0 | 0.00 | 0.00 | 0.00 | 72 | 1009.6 |
| 20260904175014 | 73 | 200 | 0.0 | 3.0 | 0.00 | 0.00 | 0.00 | 72 | 1009.7 |
| 20260904174745 | 73 | 198 | 0.0 | 3.0 | 0.00 | 0.00 | 0.00 | 72 | 1009.8 |
| 20260904174728 | 73 | 194 | 0.0 | 3.0 | 0.00 | 0.00 | 0.00 | 72 | 1009.6 |
| 20260904174713 | 73 | 198 | 0.0 | 3.0 | 0.00 | 0.00 | 0.00 | 72 | 1009.6 |
| 20260904174657 | 73 | 191 | 0.0 | 3.0 | 0.00 | 0.00 | 0.00 | 72 | 1009.6 |
| 20260904174640 | 73 | 194 | 0.0 | 3.0 | 0.00 | 0.00 | 0.00 | 72 | 1009.6 |
| 20260904174414 | 73 | 201 | 0.0 | 3.0 | 0.00 | 0.00 | 0.00 | 71 | 1009.5 |
| 20260904174137 | 73 | 194 | 0.0 | 3.0 | 0.00 | 0.00 | 0.00 | 71 | 1009.5 |
| 20260904173816 | 73 | 246 | 1.0 | 3.0 | 0.00 | 0.00 | 0.00 | 71 | 1009.3 |
| 20260904173716 | 73 | 214 | 0.0 | 3.0 | 0.00 | 0.00 | 0.00 | 71 | 1009.4 |
| 20260904173617 | 73 | 225 | 3.0 | 3.0 | 0.00 | 0.00 | 0.00 | 71 | 1009.3 |
| 20260904173516 | 73 | 204 | 0.0 | 2.0 | 0.00 | 0.00 | 0.00 | 71 | 1009.6 |
| 20260904173416 | 73 | 198 | 0.0 | 2.0 | 0.00 | 0.00 | 0.00 | 71 | 1009.5 |
| 20260904173317 | 73 | 256 | 0.0 | 2.0 | 0.00 | 0.00 | 0.00 | 71 | 1009.3 |
| 20260904173306 | 74 | 202 | 1.0 | 4.0 | 0.00 | 0.00 | 0.00 | 71 | 1009.4 |
| 20260904173250 | 74 | 197 | 0.0 | 3.0 | 0.00 | 0.00 | 0.00 | 71 | 1009.3 |
| 20260904173235 | 74 | 198 | 0.0 | 3.0 | 0.00 | 0.00 | 0.00 | 71 | 1009.3 |
| 20260904172959 | 74 | 201 | 0.0 | 4.0 | 0.00 | 0.00 | 0.00 | 71 | 1009.4 |
| 20260904172942 | 74 | 200 | 0.0 | 4.0 | 0.00 | 0.00 | 0.00 | 71 | 1009.3 |
| 20260904172922 | 74 | 202 | 1.0 | 4.0 | 0.00 | 0.00 | 0.00 | 71 | 1009.4 |
| 20260904172638 | 74 | 204 | 0.0 | 4.0 | 0.00 | 0.00 | 0.00 | 70 | 1009.3 |
| 20260904172622 | 74 | 200 | 0.0 | 4.0 | 0.00 | 0.00 | 0.00 | 70 | 1009.4 |
| 20260904172606 | 74 | 211 | 0.0 | 4.0 | 0.00 | 0.00 | 0.00 | 70 | 1009.1 |
| 20260904172550 | 74 | 202 | 2.0 | 4.0 | 0.00 | 0.00 | 0.00 | 70 | 1009.4 |
| 20260904172528 | 74 | 192 | 0.0 | 4.0 | 0.00 | 0.00 | 0.00 | 70 | 1009.2 |
| 20260904172251 | 74 | 255 | 0.0 | 4.0 | 0.00 | 0.00 | 0.00 | 70 | 1009.2 |
| 20260904172235 | 74 | 199 | 0.0 | 4.0 | 0.00 | 0.00 | 0.00 | 70 | 1009.3 |
| 20260904172220 | 74 | 192 | 0.0 | 4.0 | 0.00 | 0.00 | 0.00 | 70 | 1009.4 |
| 20260904171951 | 74 | 202 | 0.0 | 4.0 | 0.00 | 0.00 | 0.00 | 70 | 1009.3 |
| 20260904171412 | 74 | 192 | 0.0 | 4.0 | 0.00 | 0.00 | 0.00 | 70 | 1009.2 |
| 20260904171312 | 74 | 222 | 2.0 | 7.0 | 0.00 | 0.00 | 0.00 | 70 | 1009.1 |
| 20260904171241 | 74 | 199 | 1.0 | 7.0 | 0.00 | 0.00 | 0.00 | 70 | 1009.3 |
| 20260904171225 | 74 | 242 | 2.0 | 7.0 | 0.00 | 0.00 | 0.00 | 70 | 1009.2 |
| 20260904171210 | 74 | 219 | 0.0 | 7.0 | 0.00 | 0.00 | 0.00 | 70 | 1009.2 |
| 20260904171154 | 74 | 211 | 0.0 | 7.0 | 0.00 | 0.00 | 0.00 | 70 | 1009.2 |
| 20260904171139 | 74 | 178 | 0.0 | 7.0 | 0.00 | 0.00 | 0.00 | 70 | 1009.5 |
| 20260904170909 | 74 | 229 | 1.0 | 7.0 | 0.00 | 0.00 | 0.00 | 70 | 1009.3 |
| 20260904170852 | 74 | 205 | 0.0 | 8.0 | 0.00 | 0.00 | 0.00 | 70 | 1009.4 |
| 20260904170615 | 74 | 202 | 0.0 | 8.0 | 0.00 | 0.00 | 0.00 | 70 | 1009.3 |
| 20260904170332 | 75 | 212 | 0.0 | 8.0 | 0.00 | 0.00 | 0.00 | 70 | 1009.3 |
| 20260904170048 | 75 | 202 | 0.0 | 8.0 | 0.00 | 0.00 | 0.00 | 70 | 1009.4 |
| 20260904170032 | 75 | 226 | 1.0 | 8.0 | 0.00 | 0.00 | 0.00 | 69 | 1009.4 |
| 20260904165712 | 75 | 195 | 2.0 | 8.0 | 0.00 | 0.00 | 0.00 | 69 | 1009.3 |
| 20260904165647 | 75 | 215 | 2.0 | 4.0 | 0.00 | 0.00 | 0.00 | 69 | 1009.4 |
| 20260904165632 | 75 | 212 | 1.0 | 3.0 | 0.00 | 0.00 | 0.00 | 69 | 1009.2 |
| 20260904165312 | 75 | 234 | 1.0 | 3.0 | 0.00 | 0.00 | 0.00 | 69 | 1009.4 |
| 20260904165213 | 75 | 211 | 0.0 | 3.0 | 0.00 | 0.00 | 0.00 | 69 | 1009.3 |
| 20260904165112 | 75 | 188 | 1.0 | 3.0 | 0.00 | 0.00 | 0.00 | 68 | 1009.3 |
| 20260904165012 | 75 | 202 | 0.0 | 2.0 | 0.00 | 0.00 | 0.00 | 68 | 1009.5 |
| 20260904164912 | 75 | 216 | 1.0 | 1.0 | 0.00 | 0.00 | 0.00 | 68 | 1009.5 |
| 20260904164812 | 75 | 188 | 0.0 | 1.0 | 0.00 | 0.00 | 0.00 | 68 | 1009.4 |
| 20260904164711 | 75 | 163 | 0.0 | 1.0 | 0.00 | 0.00 | 0.00 | 68 | 1009.5 |
| 20260904164109 | 76 | 214 | 0.0 | 7.0 | 0.00 | 0.00 | 0.00 | 68 | 1009.4 |
| 20260904164009 | 76 | 203 | 0.0 | 7.0 | 0.00 | 0.00 | 0.00 | 68 | 1009.3 |
| 20260904163910 | 76 | 211 | 1.0 | 7.0 | 0.00 | 0.00 | 0.00 | 68 | 1009.6 |
| 20260904163810 | 76 | 218 | 2.0 | 4.0 | 0.00 | 0.00 | 0.00 | 68 | 1009.3 |
| 20260904163742 | 76 | 232 | 0.0 | 4.0 | 0.00 | 0.00 | 0.00 | 68 | 1009.5 |
| 20260904163710 | 76 | 194 | 0.0 | 4.0 | 0.00 | 0.00 | 0.00 | 68 | 1009.5 |
| 20260904163610 | 76 | 221 | 1.0 | 6.0 | 0.00 | 0.00 | 0.00 | 68 | 1009.4 |
| 20260904163509 | 76 | 231 | 1.0 | 6.0 | 0.00 | 0.00 | 0.00 | 68 | 1009.5 |
| 20260904163408 | 76 | 226 | 3.0 | 6.0 | 0.00 | 0.00 | 0.00 | 68 | 1009.6 |
| 20260904163352 | 76 | 202 | 1.0 | 6.0 | 0.00 | 0.00 | 0.00 | 67 | 1009.6 |
| 20260904163343 | 76 | 199 | 0.0 | 6.0 | 0.00 | 0.00 | 0.00 | 68 | 1009.5 |
| 20260904163330 | 76 | 199 | 0.0 | 6.0 | 0.00 | 0.00 | 0.00 | 68 | 1009.6 |
| 20260904163321 | 76 | 206 | 0.0 | 6.0 | 0.00 | 0.00 | 0.00 | 68 | 1009.6 |
| 20260904163305 | 76 | 198 | 1.0 | 6.0 | 0.00 | 0.00 | 0.00 | 68 | 1009.6 |
| 20260904163249 | 76 | 161 | 0.0 | 6.0 | 0.00 | 0.00 | 0.00 | 67 | 1009.5 |
| 20260904163234 | 76 | 182 | 0.0 | 6.0 | 0.00 | 0.00 | 0.00 | 68 | 1009.7 |
| 20260904162745 | 76 | 200 | 0.0 | 6.0 | 0.00 | 0.00 | 0.00 | 67 | 1009.6 |
| 20260904162729 | 76 | 208 | 3.0 | 4.0 | 0.00 | 0.00 | 0.00 | 67 | 1009.4 |
| 20260904162455 | 76 | 186 | 0.0 | 6.0 | 0.00 | 0.00 | 0.00 | 67 | 1009.7 |
| 20260904162446 | 76 | 204 | 0.0 | 3.0 | 0.00 | 0.00 | 0.00 | 67 | 1009.7 |
| 20260904162430 | 76 | 282 | 1.0 | 6.0 | 0.00 | 0.00 | 0.00 | 67 | 1009.3 |
| 20260904162417 | 76 | 235 | 0.0 | 6.0 | 0.00 | 0.00 | 0.00 | 67 | 1009.4 |
| 20260904162408 | 76 | 178 | 1.0 | 6.0 | 0.00 | 0.00 | 0.00 | 67 | 1009.4 |
| 20260904162351 | 76 | 199 | 0.0 | 6.0 | 0.00 | 0.00 | 0.00 | 67 | 1009.8 |
| 20260904162335 | 76 | 165 | 0.0 | 6.0 | 0.00 | 0.00 | 0.00 | 67 | 1009.7 |
| 20260904162059 | 76 | 188 | 1.0 | 6.0 | 0.00 | 0.00 | 0.00 | 67 | 1009.9 |
| 20260904161831 | 76 | 167 | 0.0 | 6.0 | 0.00 | 0.00 | 0.00 | 67 | 1009.7 |
| 20260904161510 | 76 | 215 | 1.0 | 7.0 | 0.00 | 0.00 | 0.00 | 67 | 1009.6 |
| 20260904161410 | 76 | 241 | 4.0 | 7.0 | 0.00 | 0.00 | 0.00 | 67 | 1009.8 |
| 20260904161310 | 76 | 205 | 0.0 | 7.0 | 0.00 | 0.00 | 0.00 | 67 | 1009.7 |
| 20260904161242 | 76 | 213 | 3.0 | 7.0 | 0.00 | 0.00 | 0.00 | 67 | 1009.9 |
| 20260904161209 | 76 | 287 | 1.0 | 7.0 | 0.00 | 0.00 | 0.00 | 67 | 1009.9 |
| 20260904161110 | 76 | 103 | 0.0 | 7.0 | 0.00 | 0.00 | 0.00 | 67 | 1009.8 |
| 20260904161010 | 76 | 168 | 1.0 | 7.0 | 0.00 | 0.00 | 0.00 | 67 | 1009.8 |
| 20260904160909 | 76 | 172 | 0.0 | 7.0 | 0.00 | 0.00 | 0.00 | 67 | 1010.0 |
| 20260904160809 | 76 | 121 | 0.0 | 7.0 | 0.00 | 0.00 | 0.00 | 67 | 1010.0 |
| 20260904160742 | 76 | 183 | 3.0 | 7.0 | 0.00 | 0.00 | 0.00 | 67 | 1010.0 |
| 20260904160710 | 76 | 199 | 1.0 | 7.0 | 0.00 | 0.00 | 0.00 | 67 | 1010.0 |
| 20260904160609 | 76 | 227 | 2.0 | 7.0 | 0.00 | 0.00 | 0.00 | 67 | 1009.7 |
| 20260904160509 | 76 | 216 | 4.0 | 7.0 | 0.00 | 0.00 | 0.00 | 67 | 1010.0 |
| 20260904160409 | 76 | 207 | 0.0 | 7.0 | 0.00 | 0.00 | 0.00 | 67 | 1009.9 |
| 20260904160309 | 76 | 237 | 3.0 | 7.0 | 0.00 | 0.00 | 0.00 | 67 | 1009.9 |
| 20260904160241 | 76 | 244 | 1.0 | 7.0 | 0.00 | 0.00 | 0.00 | 67 | 1010.0 |
| 20260904160209 | 76 | 211 | 3.0 | 7.0 | 0.00 | 0.00 | 0.00 | 67 | 1010.0 |
| 20260904160109 | 76 | 204 | 1.0 | 7.0 | 0.00 | 0.00 | 0.00 | 67 | 1010.0 |
| 20260904160010 | 76 | 166 | 0.0 | 7.0 | 0.00 | 0.00 | 0.00 | 67 | 1010.0 |
| 20260904155910 | 76 | 174 | 1.0 | 7.0 | 0.00 | 0.00 | 0.00 | 67 | 1010.0 |
| 20260904155809 | 76 | 164 | 0.0 | 7.0 | 0.00 | 0.00 | 0.00 | 67 | 1009.8 |
| 20260904155741 | 76 | 221 | 0.0 | 7.0 | 0.00 | 0.00 | 0.00 | 67 | 1010.0 |
| 20260904155710 | 76 | 177 | 1.0 | 7.0 | 0.00 | 0.00 | 0.00 | 67 | 1010.0 |
| 20260904155609 | 76 | 217 | 1.0 | 7.0 | 0.00 | 0.00 | 0.00 | 67 | 1009.8 |
| 20260904155510 | 76 | 214 | 1.0 | 7.0 | 0.00 | 0.00 | 0.00 | 67 | 1010.0 |
| 20260904155453 | 76 | 200 | 1.0 | 7.0 | 0.00 | 0.00 | 0.00 | 67 | 1010.0 |
| 20260904155437 | 77 | 202 | 1.0 | 7.0 | 0.00 | 0.00 | 0.00 | 67 | 1009.9 |
| 20260904155423 | 77 | 202 | 1.0 | 7.0 | 0.00 | 0.00 | 0.00 | 67 | 1010.0 |
| 20260904155110 | 77 | 214 | 0.0 | 7.0 | 0.00 | 0.00 | 0.00 | 67 | 1010.0 |
| 20260904155009 | 77 | 171 | 0.0 | 7.0 | 0.00 | 0.00 | 0.00 | 66 | 1009.9 |
| 20260904154911 | 77 | 228 | 2.0 | 7.0 | 0.00 | 0.00 | 0.00 | 66 | 1010.0 |
| 20260904154854 | 77 | 244 | 2.0 | 7.0 | 0.00 | 0.00 | 0.00 | 66 | 1009.9 |
| 20260904154841 | 77 | 197 | 0.0 | 7.0 | 0.00 | 0.00 | 0.00 | 66 | 1009.8 |
| 20260904154830 | 77 | 220 | 3.0 | 8.0 | 0.00 | 0.00 | 0.00 | 66 | 1009.8 |
| 20260904154509 | 77 | 55 | 0.0 | 8.0 | 0.00 | 0.00 | 0.00 | 67 | 1010.0 |
| 20260904154454 | 77 | 188 | 1.0 | 15.0 | 0.00 | 0.00 | 0.00 | 66 | 1010.2 |
| 20260904154442 | 77 | 205 | 0.0 | 8.0 | 0.00 | 0.00 | 0.00 | 66 | 1010.0 |
| 20260904154426 | 77 | 214 | 3.0 | 8.0 | 0.00 | 0.00 | 0.00 | 66 | 1010.1 |
| 20260904154413 | 77 | 226 | 1.0 | 8.0 | 0.00 | 0.00 | 0.00 | 66 | 1010.0 |
| 20260904154403 | 77 | 172 | 1.0 | 8.0 | 0.00 | 0.00 | 0.00 | 66 | 1010.0 |
| 20260904154138 | 77 | 216 | 1.0 | 11.0 | 0.00 | 0.00 | 0.00 | 66 | 1009.9 |
| 20260904154122 | 77 | 213 | 0.0 | 11.0 | 0.00 | 0.00 | 0.00 | 66 | 1010.0 |
| 20260904154106 | 77 | 227 | 2.0 | 15.0 | 0.00 | 0.00 | 0.00 | 66 | 1010.0 |
| 20260904154050 | 77 | 234 | 2.0 | 15.0 | 0.00 | 0.00 | 0.00 | 66 | 1010.2 |
| 20260904154037 | 77 | 234 | 2.0 | 15.0 | 0.00 | 0.00 | 0.00 | 66 | 1010.0 |
| 20260904154026 | 77 | 188 | 4.0 | 15.0 | 0.00 | 0.00 | 0.00 | 66 | 1010.0 |
| 20260904153750 | 77 | 196 | 1.0 | 15.0 | 0.00 | 0.00 | 0.00 | 66 | 1010.2 |
| 20260904153734 | 77 | 242 | 2.0 | 15.0 | 0.00 | 0.00 | 0.00 | 66 | 1010.1 |
| 20260904153718 | 77 | 244 | 2.0 | 15.0 | 0.00 | 0.00 | 0.00 | 66 | 1010.2 |
| 20260904153231 | 77 | 87 | 1.0 | 15.0 | 0.00 | 0.00 | 0.00 | 66 | 1010.5 |
| 20260904152909 | 77 | 217 | 2.0 | 8.0 | 0.00 | 0.00 | 0.00 | 66 | 1010.4 |
| 20260904152810 | 77 | 204 | 1.0 | 7.0 | 0.00 | 0.00 | 0.00 | 66 | 1010.7 |
| 20260904152741 | 77 | 224 | 2.0 | 7.0 | 0.00 | 0.00 | 0.00 | 66 | 1010.5 |
| 20260904152710 | 77 | 175 | 1.0 | 8.0 | 0.00 | 0.00 | 0.00 | 66 | 1010.5 |
| 20260904152610 | 77 | 165 | 0.0 | 8.0 | 0.00 | 0.00 | 0.00 | 66 | 1010.1 |
| 20260904152509 | 77 | 249 | 2.0 | 8.0 | 0.00 | 0.00 | 0.00 | 66 | 1010.5 |
| 20260904152409 | 77 | 193 | 0.0 | 8.0 | 0.00 | 0.00 | 0.00 | 66 | 1010.5 |
| 20260904152311 | 78 | 187 | 0.0 | 8.0 | 0.00 | 0.00 | 0.00 | 66 | 1010.4 |
| 20260904152241 | 78 | 78 | 1.0 | 8.0 | 0.00 | 0.00 | 0.00 | 66 | 1010.2 |
| 20260904152210 | 78 | 103 | 0.0 | 8.0 | 0.00 | 0.00 | 0.00 | 66 | 1010.2 |
| 20260904152109 | 78 | 185 | 2.0 | 8.0 | 0.00 | 0.00 | 0.00 | 66 | 1010.5 |
| 20260904152011 | 78 | 219 | 2.0 | 8.0 | 0.00 | 0.00 | 0.00 | 66 | 1010.2 |
| 20260904151910 | 78 | 196 | 1.0 | 8.0 | 0.00 | 0.00 | 0.00 | 66 | 1010.4 |
| 20260904151810 | 78 | 214 | 2.0 | 8.0 | 0.00 | 0.00 | 0.00 | 66 | 1010.6 |
| 20260904151741 | 78 | 206 | 4.0 | 8.0 | 0.00 | 0.00 | 0.00 | 66 | 1010.2 |
| 20260904151709 | 78 | 196 | 0.0 | 6.0 | 0.00 | 0.00 | 0.00 | 66 | 1010.2 |
| 20260904151645 | 78 | 161 | 0.0 | 6.0 | 0.00 | 0.00 | 0.00 | 66 | 1010.7 |
| 20260904151629 | 78 | 195 | 0.0 | 6.0 | 0.00 | 0.00 | 0.00 | 66 | 1010.6 |
| 20260904151613 | 78 | 172 | 0.0 | 6.0 | 0.00 | 0.00 | 0.00 | 66 | 1010.5 |
| 20260904151556 | 78 | 253 | 2.0 | 6.0 | 0.00 | 0.00 | 0.00 | 66 | 1010.7 |
| 20260904151542 | 78 | 125 | 2.0 | 6.0 | 0.00 | 0.00 | 0.00 | 66 | 1010.7 |
| 20260904151039 | 78 | 215 | 0.0 | 8.0 | 0.00 | 0.00 | 0.00 | 66 | 1010.6 |
| 20260904151030 | 78 | 199 | 1.0 | 8.0 | 0.00 | 0.00 | 0.00 | 66 | 1010.8 |
| 20260904151015 | 78 | 190 | 0.0 | 8.0 | 0.00 | 0.00 | 0.00 | 66 | 1010.6 |
| 20260904150959 | 78 | 199 | 0.0 | 8.0 | 0.00 | 0.00 | 0.00 | 66 | 1010.8 |
| 20260904150709 | 78 | 194 | 0.0 | 8.0 | 0.00 | 0.00 | 0.00 | 66 | 1010.6 |
| 20260904150610 | 77 | 195 | 0.0 | 8.0 | 0.00 | 0.00 | 0.00 | 66 | 1010.5 |
| 20260904150530 | 77 | 203 | 2.0 | 3.0 | 0.00 | 0.00 | 0.00 | 67 | 1010.9 |
| 20260904150525 | 76 | 190 | 0.0 | 3.0 | 0.00 | 0.00 | 0.00 | 67 | 1011.1 |
| 20260904150520 | 76 | 192 | 0.0 | 6.0 | 0.00 | 0.00 | 0.00 | 68 | 1011.3 |
| 20260904150515 | 77 | 194 | 0.0 | 8.0 | 0.00 | 0.00 | 0.00 | 66 | 1010.8 |
| 20260904150458 | 77 | 202 | 1.0 | 8.0 | 0.00 | 0.00 | 0.00 | 66 | 1010.7 |
| 20260904150442 | 77 | 223 | 0.0 | 8.0 | 0.00 | 0.00 | 0.00 | 66 | 1010.6 |
| 20260904150428 | 77 | 99 | 1.0 | 8.0 | 0.00 | 0.00 | 0.00 | 66 | 1010.4 |
| 20260904150419 | 77 | 183 | 0.0 | 8.0 | 0.00 | 0.00 | 0.00 | 66 | 1010.4 |
| 20260904150403 | 77 | 267 | 1.0 | 8.0 | 0.00 | 0.00 | 0.00 | 66 | 1010.8 |
| 20260904150346 | 77 | 239 | 1.0 | 6.0 | 0.00 | 0.00 | 0.00 | 66 | 1010.7 |
| 20260904150330 | 77 | 206 | 0.0 | 6.0 | 0.00 | 0.00 | 0.00 | 66 | 1011.0 |
| 20260904150313 | 77 | 256 | 1.0 | 6.0 | 0.00 | 0.00 | 0.00 | 67 | 1010.5 |
| 20260904150259 | 77 | 182 | 0.0 | 4.0 | 0.00 | 0.00 | 0.00 | 67 | 1010.8 |
| 20260904150248 | 77 | 198 | 2.0 | 4.0 | 0.00 | 0.00 | 0.00 | 66 | 1010.8 |
| 20260904150232 | 77 | 174 | 1.0 | 3.0 | 0.00 | 0.00 | 0.00 | 66 | 1010.8 |
| 20260904145956 | 77 | 190 | 0.0 | 3.0 | 0.00 | 0.00 | 0.00 | 67 | 1010.9 |
| 20260904145940 | 77 | 216 | 0.0 | 3.0 | 0.00 | 0.00 | 0.00 | 67 | 1011.0 |
| 20260904145927 | 77 | 200 | 0.0 | 3.0 | 0.00 | 0.00 | 0.00 | 67 | 1010.9 |
| 20260904145437 | 77 | 249 | 1.0 | 3.0 | 0.00 | 0.00 | 0.00 | 67 | 1010.9 |
| 20260904145420 | 77 | 189 | 0.0 | 3.0 | 0.00 | 0.00 | 0.00 | 67 | 1010.9 |
| 20260904144711 | 77 | 206 | 0.0 | 3.0 | 0.00 | 0.00 | 0.00 | 67 | 1010.8 |
| 20260904144655 | 77 | 149 | 1.0 | 3.0 | 0.00 | 0.00 | 0.00 | 67 | 1011.0 |
| 20260904144639 | 77 | 185 | 0.0 | 3.0 | 0.00 | 0.00 | 0.00 | 67 | 1010.8 |
| 20260904144405 | 77 | 192 | 0.0 | 3.0 | 0.00 | 0.00 | 0.00 | 67 | 1010.9 |
| 20260904144355 | 77 | 209 | 2.0 | 3.0 | 0.00 | 0.00 | 0.00 | 67 | 1010.9 |
| 20260904144340 | 76 | 200 | 1.0 | 2.0 | 0.00 | 0.00 | 0.00 | 67 | 1010.8 |
| 20260904144323 | 76 | 207 | 1.0 | 3.0 | 0.00 | 0.00 | 0.00 | 67 | 1011.0 |
| 20260904144308 | 76 | 200 | 0.0 | 3.0 | 0.00 | 0.00 | 0.00 | 67 | 1011.0 |
| 20260904144252 | 76 | 196 | 0.0 | 3.0 | 0.00 | 0.00 | 0.00 | 67 | 1011.0 |
| 20260904144023 | 76 | 137 | 1.0 | 3.0 | 0.00 | 0.00 | 0.00 | 68 | 1011.1 |
| 20260904144008 | 76 | 184 | 1.0 | 3.0 | 0.00 | 0.00 | 0.00 | 68 | 1011.2 |
| 20260904143513 | 76 | 97 | 1.0 | 4.0 | 0.00 | 0.00 | 0.00 | 68 | 1011.1 |
| 20260904143246 | 76 | 188 | 0.0 | 6.0 | 0.00 | 0.00 | 0.00 | 68 | 1011.3 |
| 20260904143230 | 76 | 194 | 1.0 | 6.0 | 0.00 | 0.00 | 0.00 | 68 | 1011.0 |
| 20260904142909 | 76 | 238 | 1.0 | 7.0 | 0.00 | 0.00 | 0.00 | 68 | 1011.0 |
| 20260904142811 | 76 | 209 | 0.0 | 7.0 | 0.00 | 0.00 | 0.00 | 68 | 1011.3 |
| 20260904142757 | 76 | 168 | 0.0 | 7.0 | 0.00 | 0.00 | 0.00 | 68 | 1011.2 |
| 20260904142746 | 76 | 199 | 0.0 | 7.0 | 0.00 | 0.00 | 0.00 | 68 | 1011.2 |
| 20260904142731 | 76 | 218 | 0.0 | 7.0 | 0.00 | 0.00 | 0.00 | 68 | 1011.2 |
| 20260904142410 | 76 | 200 | 2.0 | 7.0 | 0.00 | 0.00 | 0.00 | 68 | 1011.1 |
| 20260904142309 | 76 | 173 | 3.0 | 7.0 | 0.00 | 0.00 | 0.00 | 68 | 1011.2 |
| 20260904142255 | 76 | 209 | 0.0 | 7.0 | 0.00 | 0.00 | 0.00 | 68 | 1011.4 |
| 20260904142245 | 76 | 187 | 1.0 | 7.0 | 0.00 | 0.00 | 0.00 | 68 | 1011.4 |
| 20260904142230 | 76 | 232 | 3.0 | 7.0 | 0.00 | 0.00 | 0.00 | 68 | 1011.2 |
| 20260904141954 | 76 | 218 | 1.0 | 11.0 | 0.00 | 0.00 | 0.00 | 68 | 1011.2 |
| 20260904141938 | 76 | 322 | 1.0 | 11.0 | 0.00 | 0.00 | 0.00 | 68 | 1011.4 |
| 20260904141925 | 76 | 108 | 1.0 | 11.0 | 0.00 | 0.00 | 0.00 | 68 | 1011.2 |
| 20260904141610 | 76 | 185 | 1.0 | 11.0 | 0.00 | 0.00 | 0.00 | 68 | 1011.2 |
| 20260904141510 | 76 | 199 | 1.0 | 11.0 | 0.00 | 0.00 | 0.00 | 68 | 1011.3 |
| 20260904141409 | 76 | 239 | 4.0 | 11.0 | 0.00 | 0.00 | 0.00 | 68 | 1011.1 |
| 20260904141309 | 76 | 236 | 2.0 | 11.0 | 0.00 | 0.00 | 0.00 | 68 | 1011.2 |
| 20260904141241 | 76 | 212 | 0.0 | 11.0 | 0.00 | 0.00 | 0.00 | 68 | 1011.2 |
| 20260904141209 | 76 | 203 | 1.0 | 11.0 | 0.00 | 0.00 | 0.00 | 68 | 1011.2 |
| 20260904141145 | 76 | 232 | 6.0 | 11.0 | 0.00 | 0.00 | 0.00 | 68 | 1011.1 |
| 20260904141129 | 76 | 207 | 1.0 | 9.0 | 0.00 | 0.00 | 0.00 | 68 | 1011.2 |
| 20260904140848 | 77 | 76 | 9.0 | 15.0 | 0.00 | 0.00 | 0.00 | 67 | 1011.4 |
| 20260904140841 | 76 | 205 | 0.0 | 9.0 | 0.00 | 0.00 | 0.00 | 69 | 1011.4 |
| 20260904140827 | 76 | 195 | 0.0 | 9.0 | 0.00 | 0.00 | 0.00 | 69 | 1011.3 |
| 20260904140816 | 76 | 203 | 0.0 | 9.0 | 0.00 | 0.00 | 0.00 | 68 | 1011.3 |
| 20260904140800 | 76 | 194 | 4.0 | 9.0 | 0.00 | 0.00 | 0.00 | 68 | 1011.5 |
| 20260904140744 | 76 | 210 | 1.0 | 9.0 | 0.00 | 0.00 | 0.00 | 68 | 1011.3 |
| 20260904140727 | 76 | 270 | 3.0 | 9.0 | 0.00 | 0.00 | 0.00 | 68 | 1011.6 |
| 20260904140711 | 76 | 268 | 4.0 | 9.0 | 0.00 | 0.00 | 0.00 | 68 | 1011.3 |
| 20260904140658 | 77 | 244 | 6.0 | 9.0 | 0.00 | 0.00 | 0.00 | 68 | 1011.3 |
| 20260904140649 | 77 | 168 | 1.0 | 14.0 | 0.00 | 0.00 | 0.00 | 68 | 1011.3 |
| 20260904140412 | 77 | 190 | 2.0 | 15.0 | 0.00 | 0.00 | 0.00 | 67 | 1011.6 |
| 20260904135918 | 77 | 243 | 3.0 | 15.0 | 0.00 | 0.00 | 0.00 | 67 | 1011.4 |
| 20260904135907 | 77 | 198 | 1.0 | 15.0 | 0.00 | 0.00 | 0.00 | 67 | 1011.4 |
| 20260904135851 | 77 | 79 | 2.0 | 15.0 | 0.00 | 0.00 | 0.00 | 67 | 1011.4 |
| 20260904135836 | 77 | 220 | 2.0 | 15.0 | 0.00 | 0.00 | 0.00 | 67 | 1011.3 |
| 20260904135819 | 77 | 238 | 4.0 | 15.0 | 0.00 | 0.00 | 0.00 | 67 | 1011.5 |
| 20260904135803 | 77 | 99 | 2.0 | 15.0 | 0.00 | 0.00 | 0.00 | 67 | 1011.5 |
| 20260904135009 | 76 | 130 | 2.0 | 13.0 | 0.00 | 0.00 | 0.00 | 67 | 1011.1 |
| 20260904134910 | 76 | 207 | 1.0 | 13.0 | 0.00 | 0.00 | 0.00 | 67 | 1011.4 |
| 20260904134811 | 77 | 238 | 2.0 | 13.0 | 0.00 | 0.00 | 0.00 | 67 | 1011.5 |
| 20260904134741 | 77 | 227 | 7.0 | 13.0 | 0.00 | 0.00 | 0.00 | 67 | 1011.5 |
| 20260904134709 | 77 | 143 | 3.0 | 11.0 | 0.00 | 0.00 | 0.00 | 67 | 1011.5 |
| 20260904134610 | 77 | 209 | 6.0 | 11.0 | 0.00 | 0.00 | 0.00 | 67 | 1011.5 |
| 20260904134509 | 77 | 218 | 1.0 | 11.0 | 0.00 | 0.00 | 0.00 | 67 | 1011.5 |
| 20260904134455 | 77 | 183 | 3.0 | 8.0 | 0.00 | 0.00 | 0.00 | 67 | 1011.8 |
| 20260904134445 | 77 | 205 | 0.0 | 11.0 | 0.00 | 0.00 | 0.00 | 67 | 1011.4 |
| 20260904134429 | 77 | 205 | 2.0 | 11.0 | 0.00 | 0.00 | 0.00 | 67 | 1011.4 |
| 20260904134415 | 77 | 340 | 2.0 | 11.0 | 0.00 | 0.00 | 0.00 | 67 | 1011.6 |
| 20260904134406 | 77 | 201 | 1.0 | 11.0 | 0.00 | 0.00 | 0.00 | 67 | 1011.6 |
| 20260904134131 | 77 | 206 | 2.0 | 11.0 | 0.00 | 0.00 | 0.00 | 66 | 1011.6 |
| 20260904134114 | 77 | 100 | 1.0 | 11.0 | 0.00 | 0.00 | 0.00 | 66 | 1011.6 |
| 20260904134058 | 77 | 240 | 6.0 | 11.0 | 0.00 | 0.00 | 0.00 | 66 | 1011.8 |
| 20260904133830 | 77 | 168 | 0.0 | 8.0 | 0.00 | 0.00 | 0.00 | 67 | 1011.8 |
| 20260904133509 | 76 | 191 | 0.0 | 8.0 | 0.00 | 0.00 | 0.00 | 67 | 1011.4 |
| 20260904133409 | 76 | 175 | 0.0 | 9.0 | 0.00 | 0.00 | 0.00 | 67 | 1011.5 |
| 20260904133309 | 76 | 176 | 1.0 | 14.0 | 0.00 | 0.00 | 0.00 | 67 | 1012.1 |
| 20260904133241 | 76 | 223 | 2.0 | 14.0 | 0.00 | 0.00 | 0.00 | 67 | 1011.7 |
| 20260904133210 | 76 | 313 | 3.0 | 14.0 | 0.00 | 0.00 | 0.00 | 67 | 1011.7 |
| 20260904133109 | 76 | 217 | 2.0 | 14.0 | 0.00 | 0.00 | 0.00 | 67 | 1011.7 |
| 20260904133010 | 76 | 235 | 3.0 | 14.0 | 0.00 | 0.00 | 0.00 | 67 | 1012.0 |
| 20260904132909 | 76 | 125 | 0.0 | 14.0 | 0.00 | 0.00 | 0.00 | 67 | 1011.9 |
| 20260904132810 | 76 | 270 | 2.0 | 14.0 | 0.00 | 0.00 | 0.00 | 67 | 1012.1 |
| 20260904132741 | 76 | 262 | 1.0 | 14.0 | 0.00 | 0.00 | 0.00 | 67 | 1012.1 |
| 20260904132709 | 76 | 201 | 0.0 | 14.0 | 0.00 | 0.00 | 0.00 | 67 | 1012.1 |
| 20260904132656 | 76 | 185 | 3.0 | 8.0 | 0.00 | 0.00 | 0.00 | 67 | 1011.8 |
| 20260904132647 | 76 | 221 | 1.0 | 14.0 | 0.00 | 0.00 | 0.00 | 67 | 1011.8 |
| 20260904132631 | 76 | 137 | 1.0 | 14.0 | 0.00 | 0.00 | 0.00 | 67 | 1012.2 |
| 20260904132615 | 76 | 298 | 5.0 | 14.0 | 0.00 | 0.00 | 0.00 | 67 | 1011.8 |
| 20260904132600 | 76 | 192 | 0.0 | 8.0 | 0.00 | 0.00 | 0.00 | 67 | 1012.2 |
| 20260904132333 | 76 | 233 | 0.0 | 8.0 | 0.00 | 0.00 | 0.00 | 67 | 1011.8 |
| 20260904132009 | 76 | 216 | 0.0 | 8.0 | 0.00 | 0.00 | 0.00 | 68 | 1012.0 |
| 20260904131909 | 76 | 192 | 0.0 | 8.0 | 0.00 | 0.00 | 0.00 | 68 | 1011.6 |
| 20260904131810 | 76 | 208 | 0.0 | 8.0 | 0.00 | 0.00 | 0.00 | 68 | 1012.1 |
| 20260904131741 | 76 | 200 | 0.0 | 8.0 | 0.00 | 0.00 | 0.00 | 68 | 1012.0 |
| 20260904131709 | 76 | 192 | 1.0 | 8.0 | 0.00 | 0.00 | 0.00 | 67 | 1012.0 |
| 20260904131610 | 76 | 123 | 3.0 | 8.0 | 0.00 | 0.00 | 0.00 | 68 | 1012.1 |
| 20260904131510 | 76 | 86 | 1.0 | 6.0 | 0.00 | 0.00 | 0.00 | 68 | 1012.0 |
| 20260904131409 | 76 | 329 | 0.0 | 7.0 | 0.00 | 0.00 | 0.00 | 68 | 1011.9 |
| 20260904131310 | 76 | 167 | 0.0 | 15.0 | 0.00 | 0.00 | 0.00 | 68 | 1011.7 |
| 20260904131241 | 76 | 193 | 1.0 | 15.0 | 0.00 | 0.00 | 0.00 | 68 | 1012.0 |
| 20260904131209 | 76 | 175 | 0.0 | 15.0 | 0.00 | 0.00 | 0.00 | 68 | 1012.0 |
| 20260904131110 | 77 | 231 | 3.0 | 15.0 | 0.00 | 0.00 | 0.00 | 67 | 1011.8 |
| 20260904131010 | 77 | 199 | 0.0 | 15.0 | 0.00 | 0.00 | 0.00 | 68 | 1011.9 |
| 20260904130911 | 77 | 193 | 1.0 | 15.0 | 0.00 | 0.00 | 0.00 | 67 | 1011.9 |
| 20260904130809 | 77 | 158 | 2.0 | 15.0 | 0.00 | 0.00 | 0.00 | 67 | 1012.1 |
| 20260904130741 | 77 | 0 | 2.0 | 15.0 | 0.00 | 0.00 | 0.00 | 67 | 1011.8 |
| 20260904130709 | 77 | 196 | 0.0 | 15.0 | 0.00 | 0.00 | 0.00 | 67 | 1011.8 |
| 20260904130609 | 76 | 259 | 1.0 | 15.0 | 0.00 | 0.00 | 0.00 | 67 | 1011.9 |
| 20260904130510 | 76 | 207 | 1.0 | 15.0 | 0.00 | 0.00 | 0.00 | 67 | 1012.0 |
| 20260904130453 | 76 | 214 | 4.0 | 15.0 | 0.00 | 0.00 | 0.00 | 68 | 1012.0 |
| 20260904130437 | 76 | 110 | 1.0 | 13.0 | 0.00 | 0.00 | 0.00 | 68 | 1012.0 |
| 20260904130424 | 76 | 146 | 3.0 | 13.0 | 0.00 | 0.00 | 0.00 | 68 | 1011.9 |
| 20260904130109 | 76 | 226 | 4.0 | 11.0 | 0.00 | 0.00 | 0.00 | 67 | 1012.1 |
| 20260904130009 | 76 | 225 | 3.0 | 11.0 | 0.00 | 0.00 | 0.00 | 67 | 1012.1 |
| 20260904125908 | 76 | 31 | 3.0 | 11.0 | 0.00 | 0.00 | 0.00 | 68 | 1012.3 |
| 20260904125809 | 76 | 194 | 1.0 | 11.0 | 0.00 | 0.00 | 0.00 | 68 | 1012.2 |
| 20260904125741 | 76 | 218 | 1.0 | 11.0 | 0.00 | 0.00 | 0.00 | 68 | 1011.9 |
| 20260904125709 | 76 | 196 | 1.0 | 11.0 | 0.00 | 0.00 | 0.00 | 68 | 1011.9 |
| 20260904125609 | 76 | 213 | 0.0 | 11.0 | 0.00 | 0.00 | 0.00 | 68 | 1012.2 |
| 20260904125509 | 76 | 144 | 1.0 | 14.0 | 0.00 | 0.00 | 0.00 | 68 | 1012.5 |
| 20260904125409 | 76 | 186 | 2.0 | 14.0 | 0.00 | 0.00 | 0.00 | 68 | 1012.2 |
| 20260904125309 | 76 | 189 | 1.0 | 14.0 | 0.00 | 0.00 | 0.00 | 68 | 1012.1 |
| 20260904125241 | 76 | 214 | 2.0 | 14.0 | 0.00 | 0.00 | 0.00 | 68 | 1012.2 |
| 20260904125210 | 76 | 192 | 1.0 | 14.0 | 0.00 | 0.00 | 0.00 | 68 | 1012.2 |
| 20260904125109 | 76 | 211 | 1.0 | 14.0 | 0.00 | 0.00 | 0.00 | 68 | 1012.3 |
| 20260904125010 | 76 | 196 | 5.0 | 14.0 | 0.00 | 0.00 | 0.00 | 68 | 1012.2 |
| 20260904124909 | 76 | 131 | 2.0 | 14.0 | 0.00 | 0.00 | 0.00 | 68 | 1012.4 |
| 20260904124808 | 75 | 101 | 2.0 | 14.0 | 0.00 | 0.00 | 0.00 | 69 | 1012.2 |
| 20260904124741 | 75 | 340 | 3.0 | 14.0 | 0.00 | 0.00 | 0.00 | 69 | 1012.3 |
| 20260904124709 | 75 | 184 | 1.0 | 14.0 | 0.00 | 0.00 | 0.00 | 69 | 1012.3 |
| 20260904124608 | 75 | 212 | 1.0 | 16.0 | 0.00 | 0.00 | 0.00 | 69 | 1012.2 |
| 20260904124543 | 75 | 183 | 0.0 | 16.0 | 0.00 | 0.00 | 0.00 | 69 | 1012.2 |
| 20260904124528 | 75 | 166 | 0.0 | 16.0 | 0.00 | 0.00 | 0.00 | 69 | 1012.3 |
| 20260904124241 | 75 | 170 | 0.0 | 16.0 | 0.00 | 0.00 | 0.00 | 69 | 1012.6 |
| 20260904124208 | 75 | 217 | 6.0 | 16.0 | 0.00 | 0.00 | 0.00 | 69 | 1012.6 |
| 20260904124108 | 75 | 29 | 2.0 | 16.0 | 0.00 | 0.00 | 0.00 | 68 | 1012.3 |
| 20260904124008 | 75 | 212 | 1.0 | 16.0 | 0.00 | 0.00 | 0.00 | 69 | 1012.4 |
| 20260904123908 | 75 | 78 | 2.0 | 16.0 | 0.00 | 0.00 | 0.00 | 68 | 1012.5 |
| 20260904123810 | 75 | 272 | 2.0 | 16.0 | 0.00 | 0.00 | 0.00 | 68 | 1012.2 |
| 20260904123740 | 75 | 344 | 4.0 | 16.0 | 0.00 | 0.00 | 0.00 | 68 | 1012.4 |
| 20260904123709 | 75 | 252 | 9.0 | 16.0 | 0.00 | 0.00 | 0.00 | 68 | 1012.4 |
| 20260904123608 | 76 | 193 | 1.0 | 15.0 | 0.00 | 0.00 | 0.00 | 68 | 1012.3 |
| 20260904123510 | 76 | 200 | 1.0 | 15.0 | 0.00 | 0.00 | 0.00 | 68 | 1012.6 |
| 20260904123432 | 75 | 242 | 4.0 | 10.0 | 0.00 | 0.00 | 0.00 | 68 | 1012.7 |
| 20260904123426 | 76 | 170 | 1.0 | 15.0 | 0.00 | 0.00 | 0.00 | 68 | 1012.3 |
| 20260904123409 | 76 | 244 | 2.0 | 15.0 | 0.00 | 0.00 | 0.00 | 68 | 1012.4 |
| 20260904123355 | 76 | 72 | 1.0 | 15.0 | 0.00 | 0.00 | 0.00 | 68 | 1012.6 |
| 20260904123345 | 76 | 154 | 0.0 | 15.0 | 0.00 | 0.00 | 0.00 | 69 | 1012.6 |
| 20260904123329 | 76 | 200 | 0.0 | 15.0 | 0.00 | 0.00 | 0.00 | 69 | 1012.5 |
| 20260904123314 | 76 | 205 | 0.0 | 15.0 | 0.00 | 0.00 | 0.00 | 69 | 1012.4 |
| 20260904123033 | 76 | 185 | 0.0 | 15.0 | 0.00 | 0.00 | 0.00 | 68 | 1012.6 |
| 20260904123020 | 76 | 192 | 0.0 | 15.0 | 0.00 | 0.00 | 0.00 | 68 | 1012.6 |
| 20260904122747 | 75 | 213 | 1.0 | 15.0 | 0.00 | 0.00 | 0.00 | 69 | 1012.4 |
| 20260904122732 | 75 | 194 | 1.0 | 15.0 | 0.00 | 0.00 | 0.00 | 69 | 1012.6 |
| 20260904122716 | 75 | 256 | 9.0 | 15.0 | 0.00 | 0.00 | 0.00 | 68 | 1012.5 |
| 20260904122204 | 75 | 196 | 1.0 | 10.0 | 0.00 | 0.00 | 0.00 | 68 | 1012.8 |
| 20260904122127 | 75 | 217 | 3.0 | 10.0 | 0.00 | 0.00 | 0.00 | 68 | 1012.6 |
| 20260904122111 | 75 | 192 | 0.0 | 10.0 | 0.00 | 0.00 | 0.00 | 69 | 1012.6 |
| 20260904121840 | 76 | 189 | 0.0 | 7.0 | 0.00 | 0.00 | 0.00 | 68 | 1012.8 |
| 20260904121830 | 75 | 95 | 1.0 | 10.0 | 0.00 | 0.00 | 0.00 | 69 | 1012.7 |
| 20260904121814 | 75 | 207 | 2.0 | 10.0 | 0.00 | 0.00 | 0.00 | 69 | 1012.7 |
| 20260904121801 | 75 | 230 | 1.0 | 10.0 | 0.00 | 0.00 | 0.00 | 68 | 1012.8 |
| 20260904121746 | 76 | 236 | 6.0 | 10.0 | 0.00 | 0.00 | 0.00 | 68 | 1012.7 |
| 20260904121730 | 76 | 232 | 3.0 | 9.0 | 0.00 | 0.00 | 0.00 | 68 | 1012.6 |
| 20260904121713 | 76 | 143 | 3.0 | 7.0 | 0.00 | 0.00 | 0.00 | 68 | 1012.6 |
| 20260904121152 | 76 | 203 | 0.0 | 7.0 | 0.00 | 0.00 | 0.00 | 68 | 1012.6 |
| 20260904121052 | 76 | 200 | 2.0 | 7.0 | 0.00 | 0.00 | 0.00 | 68 | 1013.0 |
| 20260904121033 | 76 | 197 | 0.0 | 11.0 | 0.00 | 0.00 | 0.00 | 68 | 1013.0 |
| 20260904121025 | 76 | 228 | 2.0 | 9.0 | 0.00 | 0.00 | 0.00 | 68 | 1012.7 |
| 20260904121009 | 76 | 153 | 1.0 | 9.0 | 0.00 | 0.00 | 0.00 | 68 | 1012.8 |
| 20260904120953 | 76 | 190 | 0.0 | 11.0 | 0.00 | 0.00 | 0.00 | 68 | 1013.0 |
| 20260904120652 | 76 | 161 | 0.0 | 17.0 | 0.00 | 0.00 | 0.00 | 68 | 1013.1 |
| 20260904120553 | 76 | 65 | 1.0 | 17.0 | 0.00 | 0.00 | 0.00 | 68 | 1013.0 |
| 20260904120452 | 75 | 131 | 2.0 | 17.0 | 0.00 | 0.00 | 0.00 | 68 | 1013.0 |
| 20260904120405 | 75 | 188 | 0.0 | 17.0 | 0.00 | 0.00 | 0.00 | 69 | 1013.1 |
| 20260904120349 | 75 | 194 | 1.0 | 17.0 | 0.00 | 0.00 | 0.00 | 69 | 1012.8 |
| 20260904120337 | 75 | 184 | 1.0 | 17.0 | 0.00 | 0.00 | 0.00 | 69 | 1012.8 |
| 20260904120313 | 75 | 174 | 1.0 | 17.0 | 0.00 | 0.00 | 0.00 | 69 | 1012.8 |
| 20260904120026 | 75 | 85 | 8.0 | 17.0 | 0.00 | 0.00 | 0.00 | 69 | 1013.2 |
| 20260904120018 | 75 | 192 | 0.0 | 17.0 | 0.00 | 0.00 | 0.00 | 69 | 1012.8 |
| 20260904120002 | 75 | 232 | 7.0 | 17.0 | 0.00 | 0.00 | 0.00 | 68 | 1013.0 |
| 20260904115948 | 75 | 85 | 8.0 | 17.0 | 0.00 | 0.00 | 0.00 | 68 | 1013.2 |
| 20260904115647 | 75 | 218 | 1.0 | 15.0 | 0.00 | 0.00 | 0.00 | 69 | 1013.3 |
| 20260904115539 | 75 | 87 | 1.0 | 15.0 | 0.00 | 0.00 | 0.00 | 69 | 1013.1 |
| 20260904115441 | 75 | 102 | 1.0 | 15.0 | 0.00 | 0.00 | 0.00 | 68 | 1013.0 |
| 20260904115340 | 75 | 185 | 2.0 | 15.0 | 0.00 | 0.00 | 0.00 | 68 | 1013.0 |
| 20260904115240 | 75 | 207 | 0.0 | 15.0 | 0.00 | 0.00 | 0.00 | 68 | 1013.1 |
| 20260904115227 | 75 | 165 | 1.0 | 15.0 | 0.00 | 0.00 | 0.00 | 68 | 1013.1 |
| 20260904115216 | 75 | 220 | 5.0 | 13.0 | 0.00 | 0.00 | 0.00 | 68 | 1013.3 |
| 20260904115201 | 76 | 183 | 1.0 | 13.0 | 0.00 | 0.00 | 0.00 | 68 | 1013.0 |
| 20260904115145 | 76 | 245 | 4.0 | 13.0 | 0.00 | 0.00 | 0.00 | 67 | 1013.2 |
| 20260904114909 | 76 | 231 | 2.0 | 7.0 | 0.00 | 0.00 | 0.00 | 67 | 1013.1 |
| 20260904114858 | 76 | 36 | 2.0 | 7.0 | 0.00 | 0.00 | 0.00 | 67 | 1013.1 |
| 20260904114540 | 76 | 204 | 3.0 | 10.0 | 0.00 | 0.00 | 0.00 | 67 | 1013.3 |
| 20260904114441 | 76 | 211 | 1.0 | 10.0 | 0.00 | 0.00 | 0.00 | 67 | 1013.2 |
| 20260904114423 | 76 | 207 | 1.0 | 11.0 | 0.00 | 0.00 | 0.00 | 67 | 1013.2 |
| 20260904114407 | 76 | 141 | 0.0 | 13.0 | 0.00 | 0.00 | 0.00 | 67 | 1013.4 |
| 20260904114355 | 76 | 200 | 0.0 | 13.0 | 0.00 | 0.00 | 0.00 | 67 | 1013.4 |
| 20260904114040 | 76 | 202 | 4.0 | 13.0 | 0.00 | 0.00 | 0.00 | 66 | 1013.2 |
| 20260904113940 | 76 | 179 | 0.0 | 13.0 | 0.00 | 0.00 | 0.00 | 66 | 1013.2 |
| 20260904113840 | 76 | 170 | 1.0 | 13.0 | 0.00 | 0.00 | 0.00 | 66 | 1013.2 |
| 20260904113820 | 78 | 298 | 2.0 | 10.0 | 0.00 | 0.00 | 0.00 | 64 | 1013.5 |
| 20260904113801 | 76 | 157 | 1.0 | 13.0 | 0.00 | 0.00 | 0.00 | 66 | 1013.2 |
| 20260904113748 | 76 | 295 | 5.0 | 13.0 | 0.00 | 0.00 | 0.00 | 66 | 1013.4 |
| 20260904113732 | 76 | 319 | 6.0 | 13.0 | 0.00 | 0.00 | 0.00 | 66 | 1013.1 |
| 20260904113715 | 77 | 108 | 6.0 | 13.0 | 0.00 | 0.00 | 0.00 | 65 | 1013.2 |
| 20260904113440 | 78 | 160 | 1.0 | 10.0 | 0.00 | 0.00 | 0.00 | 64 | 1013.5 |
| 20260904113141 | 78 | 236 | 0.0 | 10.0 | 0.00 | 0.00 | 0.00 | 64 | 1013.4 |
| 20260904113114 | 78 | 124 | 2.0 | 10.0 | 0.00 | 0.00 | 0.00 | 63 | 1013.3 |
| 20260904113100 | 78 | 257 | 1.0 | 10.0 | 0.00 | 0.00 | 0.00 | 63 | 1013.3 |
| 20260904112726 | 78 | 94 | 1.0 | 10.0 | 0.00 | 0.00 | 0.00 | 63 | 1013.5 |
| 20260904112656 | 78 | 169 | 2.0 | 8.0 | 0.00 | 0.00 | 0.00 | 63 | 1013.8 |
| 20260904112651 | 78 | 191 | 2.0 | 10.0 | 0.00 | 0.00 | 0.00 | 63 | 1013.5 |
| 20260904112637 | 78 | 259 | 2.0 | 10.0 | 0.00 | 0.00 | 0.00 | 63 | 1013.4 |
| 20260904112621 | 78 | 90 | 0.0 | 10.0 | 0.00 | 0.00 | 0.00 | 63 | 1013.5 |
| 20260904112606 | 78 | 164 | 1.0 | 7.0 | 0.00 | 0.00 | 0.00 | 62 | 1013.8 |
| 20260904112538 | 78 | 178 | 1.0 | 7.0 | 0.00 | 0.00 | 0.00 | 63 | 1013.3 |
| 20260904112308 | 78 | 122 | 3.0 | 7.0 | 0.00 | 0.00 | 0.00 | 63 | 1013.6 |
| 20260904112252 | 78 | 60 | 0.0 | 8.0 | 0.00 | 0.00 | 0.00 | 63 | 1013.5 |
| 20260904112237 | 78 | 210 | 2.0 | 8.0 | 0.00 | 0.00 | 0.00 | 64 | 1013.3 |
| 20260904111748 | 78 | 182 | 0.0 | 13.0 | 0.00 | 0.00 | 0.00 | 63 | 1013.7 |
| 20260904111429 | 78 | 224 | 1.0 | 13.0 | 0.00 | 0.00 | 0.00 | 63 | 1013.7 |
| 20260904111329 | 78 | 130 | 0.0 | 14.0 | 0.00 | 0.00 | 0.00 | 63 | 1013.6 |
| 20260904111303 | 78 | 163 | 0.0 | 14.0 | 0.00 | 0.00 | 0.00 | 63 | 1014.1 |
| 20260904111251 | 78 | 138 | 2.0 | 14.0 | 0.00 | 0.00 | 0.00 | 63 | 1014.1 |
| 20260904111240 | 78 | 306 | 1.0 | 14.0 | 0.00 | 0.00 | 0.00 | 63 | 1013.7 |
| 20260904111225 | 78 | 189 | 1.0 | 14.0 | 0.00 | 0.00 | 0.00 | 64 | 1013.8 |
| 20260904111209 | 77 | 64 | 1.0 | 14.0 | 0.00 | 0.00 | 0.00 | 64 | 1013.6 |
| 20260904111153 | 77 | 193 | 1.0 | 14.0 | 0.00 | 0.00 | 0.00 | 64 | 1013.6 |
| 20260904110919 | 77 | 227 | 3.0 | 14.0 | 0.00 | 0.00 | 0.00 | 63 | 1013.6 |
| 20260904110909 | 77 | 150 | 1.0 | 14.0 | 0.00 | 0.00 | 0.00 | 64 | 1013.6 |
| 20260904110410 | 78 | 219 | 7.0 | 13.0 | 0.00 | 0.00 | 0.00 | 63 | 1013.5 |
| 20260904110343 | 78 | 316 | 1.0 | 9.0 | 0.00 | 0.00 | 0.00 | 63 | 1013.7 |
| 20260904110046 | 78 | 191 | 2.0 | 7.0 | 0.00 | 0.00 | 0.00 | 63 | 1013.7 |
| 20260904105806 | 78 | 196 | 0.0 | 6.0 | 0.00 | 0.00 | 0.00 | 63 | 1013.6 |
| 20260904105752 | 78 | 176 | 0.0 | 6.0 | 0.00 | 0.00 | 0.00 | 63 | 1013.6 |
| 20260904105740 | 78 | 200 | 3.0 | 6.0 | 0.00 | 0.00 | 0.00 | 63 | 1013.8 |
| 20260904105725 | 78 | 181 | 1.0 | 4.0 | 0.00 | 0.00 | 0.00 | 63 | 1013.7 |
| 20260904105708 | 78 | 221 | 0.0 | 9.0 | 0.00 | 0.00 | 0.00 | 63 | 1013.6 |
| 20260904105213 | 78 | 211 | 1.0 | 9.0 | 0.00 | 0.00 | 0.00 | 63 | 1014.2 |
| 20260904105129 | 78 | 74 | 1.0 | 9.0 | 0.00 | 0.00 | 0.00 | 63 | 1013.8 |
| 20260904105028 | 78 | 169 | 0.0 | 9.0 | 0.00 | 0.00 | 0.00 | 64 | 1013.7 |
| 20260904104928 | 78 | 317 | 1.0 | 9.0 | 0.00 | 0.00 | 0.00 | 64 | 1013.7 |
| 20260904104907 | 78 | 199 | 0.0 | 9.0 | 0.00 | 0.00 | 0.00 | 64 | 1013.8 |
| 20260904104837 | 78 | 205 | 0.0 | 9.0 | 0.00 | 0.00 | 0.00 | 63 | 1013.9 |
| 20260904104521 | 77 | 220 | 0.0 | 3.0 | 0.00 | 0.00 | 0.00 | 66 | 1013.9 |
| 20260904104517 | 77 | 241 | 4.0 | 9.0 | 0.00 | 0.00 | 0.00 | 64 | 1013.9 |
| 20260904104501 | 77 | 198 | 1.0 | 3.0 | 0.00 | 0.00 | 0.00 | 64 | 1014.0 |
| 20260904104445 | 77 | 178 | 1.0 | 3.0 | 0.00 | 0.00 | 0.00 | 65 | 1013.9 |
| 20260904104427 | 77 | 220 | 0.0 | 3.0 | 0.00 | 0.00 | 0.00 | 66 | 1013.9 |
| 20260904104117 | 76 | 193 | 2.0 | 7.0 | 0.00 | 0.00 | 0.00 | 65 | 1013.8 |
| 20260904104016 | 76 | 201 | 0.0 | 13.0 | 0.00 | 0.00 | 0.00 | 65 | 1013.8 |
| 20260904103917 | 76 | 196 | 0.0 | 13.0 | 0.00 | 0.00 | 0.00 | 65 | 1013.9 |
| 20260904103852 | 76 | 197 | 1.0 | 13.0 | 0.00 | 0.00 | 0.00 | 65 | 1013.9 |
| 20260904103827 | 76 | 217 | 0.0 | 13.0 | 0.00 | 0.00 | 0.00 | 65 | 1013.9 |
| 20260904103812 | 76 | 205 | 0.0 | 13.0 | 0.00 | 0.00 | 0.00 | 65 | 1014.2 |
| 20260904103757 | 76 | 175 | 0.0 | 21.0 | 0.00 | 0.00 | 0.00 | 65 | 1014.1 |
| 20260904103741 | 76 | 261 | 0.0 | 21.0 | 0.00 | 0.00 | 0.00 | 65 | 1013.9 |
| 20260904103456 | 76 | 155 | 3.0 | 21.0 | 0.00 | 0.00 | 0.00 | 66 | 1014.1 |
| 20260904102917 | 75 | 198 | 3.0 | 21.0 | 0.00 | 0.00 | 0.00 | 65 | 1014.0 |
| 20260904102816 | 75 | 239 | 6.0 | 21.0 | 0.00 | 0.00 | 0.00 | 65 | 1013.7 |
| 20260904102717 | 75 | 289 | 4.0 | 21.0 | 0.00 | 0.00 | 0.00 | 66 | 1014.1 |
| 20260904102616 | 75 | 176 | 11.0 | 21.0 | 0.00 | 0.00 | 0.00 | 66 | 1013.9 |
| 20260904102553 | 75 | 198 | 0.0 | 6.0 | 0.00 | 0.00 | 0.00 | 69 | 1014.2 |
| 20260904102538 | 75 | 185 | 0.0 | 6.0 | 0.00 | 0.00 | 0.00 | 68 | 1014.2 |
| 20260904102522 | 74 | 216 | 1.0 | 8.0 | 0.00 | 0.00 | 0.00 | 68 | 1014.0 |
| 20260904102459 | 74 | 145 | 1.0 | 8.0 | 0.00 | 0.00 | 0.00 | 68 | 1014.0 |
| 20260904102442 | 74 | 209 | 0.0 | 8.0 | 0.00 | 0.00 | 0.00 | 68 | 1014.2 |
| 20260904102206 | 74 | 235 | 3.0 | 8.0 | 0.00 | 0.00 | 0.00 | 69 | 1014.1 |
| 20260904101716 | 74 | 216 | 1.0 | 11.0 | 0.00 | 0.00 | 0.00 | 69 | 1014.1 |
| 20260904101616 | 74 | 131 | 3.0 | 11.0 | 0.00 | 0.00 | 0.00 | 69 | 1014.3 |
| 20260904101554 | 74 | 47 | 1.0 | 11.0 | 0.00 | 0.00 | 0.00 | 69 | 1014.5 |
| 20260904101537 | 73 | 192 | 0.0 | 11.0 | 0.00 | 0.00 | 0.00 | 69 | 1014.0 |
| 20260904101216 | 73 | 167 | 1.0 | 11.0 | 0.00 | 0.00 | 0.00 | 70 | 1014.1 |
| 20260904101116 | 73 | 162 | 1.0 | 11.0 | 0.00 | 0.00 | 0.00 | 70 | 1014.3 |
| 20260904101053 | 73 | 271 | 1.0 | 11.0 | 0.00 | 0.00 | 0.00 | 70 | 1014.2 |
| 20260904101038 | 73 | 180 | 0.0 | 11.0 | 0.00 | 0.00 | 0.00 | 71 | 1014.1 |
| 20260904100716 | 73 | 232 | 1.0 | 14.0 | 0.00 | 0.00 | 0.00 | 72 | 1014.3 |
| 20260904100617 | 73 | 196 | 0.0 | 14.0 | 0.00 | 0.00 | 0.00 | 72 | 1014.5 |
| 20260904100517 | 73 | 99 | 1.0 | 14.0 | 0.00 | 0.00 | 0.00 | 72 | 1014.5 |
| 20260904100416 | 73 | 189 | 0.0 | 14.0 | 0.00 | 0.00 | 0.00 | 73 | 1014.3 |
| 20260904100317 | 73 | 196 | 1.0 | 14.0 | 0.00 | 0.00 | 0.00 | 73 | 1014.3 |
| 20260904100216 | 73 | 234 | 6.0 | 14.0 | 0.00 | 0.00 | 0.00 | 72 | 1014.3 |
| 20260904100116 | 73 | 266 | 3.0 | 14.0 | 0.00 | 0.00 | 0.00 | 73 | 1014.2 |
| 20260904100016 | 73 | 294 | 2.0 | 14.0 | 0.00 | 0.00 | 0.00 | 73 | 1014.2 |
| 20260904095916 | 73 | 198 | 7.0 | 14.0 | 0.00 | 0.00 | 0.00 | 72 | 1014.3 |
| 20260904095817 | 73 | 210 | 2.0 | 9.0 | 0.00 | 0.00 | 0.00 | 72 | 1014.5 |
| 20260904095717 | 73 | 203 | 2.0 | 9.0 | 0.00 | 0.00 | 0.00 | 72 | 1014.5 |
| 20260904095616 | 73 | 203 | 0.0 | 8.0 | 0.00 | 0.00 | 0.00 | 73 | 1014.5 |
| 20260904095516 | 73 | 199 | 3.0 | 15.0 | 0.00 | 0.00 | 0.00 | 72 | 1014.3 |
| 20260904095416 | 72 | 210 | 4.0 | 15.0 | 0.00 | 0.00 | 0.00 | 73 | 1014.5 |
| 20260904095359 | 73 | 234 | 4.0 | 11.0 | 0.00 | 0.00 | 0.00 | 72 | 1014.7 |
| 20260904095349 | 72 | 202 | 2.0 | 15.0 | 0.00 | 0.00 | 0.00 | 73 | 1014.3 |
| 20260904095328 | 72 | 180 | 1.0 | 15.0 | 0.00 | 0.00 | 0.00 | 73 | 1014.6 |
| 20260904095312 | 72 | 189 | 0.0 | 15.0 | 0.00 | 0.00 | 0.00 | 74 | 1014.6 |
| 20260904095048 | 72 | 199 | 0.0 | 15.0 | 0.00 | 0.00 | 0.00 | 74 | 1014.5 |
| 20260904095032 | 71 | 218 | 1.0 | 16.0 | 0.00 | 0.00 | 0.00 | 74 | 1014.5 |
| 20260904095017 | 71 | 223 | 3.0 | 16.0 | 0.00 | 0.00 | 0.00 | 74 | 1014.8 |
| 20260904094952 | 71 | 198 | 2.0 | 16.0 | 0.00 | 0.00 | 0.00 | 74 | 1014.8 |
| 20260904094936 | 71 | 229 | 3.0 | 16.0 | 0.00 | 0.00 | 0.00 | 74 | 1014.7 |
| 20260904094919 | 71 | 225 | 4.0 | 16.0 | 0.00 | 0.00 | 0.00 | 74 | 1014.6 |
| 20260904094902 | 71 | 264 | 5.0 | 16.0 | 0.00 | 0.00 | 0.00 | 74 | 1014.6 |
| 20260904094847 | 71 | 232 | 4.0 | 16.0 | 0.00 | 0.00 | 0.00 | 74 | 1014.6 |
| 20260904094824 | 72 | 201 | 2.0 | 16.0 | 0.00 | 0.00 | 0.00 | 73 | 1014.7 |
| 20260904094808 | 72 | 218 | 4.0 | 16.0 | 0.00 | 0.00 | 0.00 | 73 | 1014.5 |
| 20260904094312 | 73 | 28 | 3.0 | 13.0 | 0.00 | 0.00 | 0.00 | 73 | 1014.7 |
| 20260904093517 | 73 | 222 | 4.0 | 11.0 | 0.00 | 0.00 | 0.00 | 72 | 1014.7 |
| 20260904093416 | 73 | 138 | 1.0 | 11.0 | 0.00 | 0.00 | 0.00 | 72 | 1014.5 |
| 20260904093317 | 73 | 184 | 1.0 | 11.0 | 0.00 | 0.00 | 0.00 | 72 | 1014.9 |
| 20260904093216 | 72 | 180 | 1.0 | 11.0 | 0.00 | 0.00 | 0.00 | 73 | 1015.0 |
| 20260904093116 | 72 | 235 | 0.0 | 11.0 | 0.00 | 0.00 | 0.00 | 73 | 1014.7 |
| 20260904093054 | 73 | 212 | 8.0 | 11.0 | 0.00 | 0.00 | 0.00 | 72 | 1014.7 |
| 20260904093037 | 73 | 154 | 1.0 | 9.0 | 0.00 | 0.00 | 0.00 | 72 | 1014.7 |
| 20260904092717 | 73 | 210 | 0.0 | 9.0 | 0.00 | 0.00 | 0.00 | 73 | 1015.1 |
| 20260904092614 | 73 | 222 | 2.0 | 9.0 | 0.00 | 0.00 | 0.00 | 73 | 1014.9 |
| 20260904092514 | 73 | 181 | 1.0 | 9.0 | 0.00 | 0.00 | 0.00 | 73 | 1014.7 |
| 20260904092414 | 73 | 144 | 0.0 | 7.0 | 0.00 | 0.00 | 0.00 | 73 | 1014.9 |
| 20260904092314 | 73 | 215 | 0.0 | 7.0 | 0.00 | 0.00 | 0.00 | 73 | 1014.9 |
| 20260904092214 | 73 | 195 | 2.0 | 8.0 | 0.00 | 0.00 | 0.00 | 73 | 1014.9 |
| 20260904092113 | 73 | 204 | 0.0 | 11.0 | 0.00 | 0.00 | 0.00 | 73 | 1015.2 |
| 20260904092014 | 72 | 204 | 0.0 | 11.0 | 0.00 | 0.00 | 0.00 | 73 | 1015.0 |
| 20260904091916 | 72 | 197 | 0.0 | 14.0 | 0.00 | 0.00 | 0.00 | 74 | 1015.2 |
| 20260904091814 | 72 | 193 | 0.0 | 14.0 | 0.00 | 0.00 | 0.00 | 74 | 1014.9 |
| 20260904091715 | 72 | 212 | 1.0 | 14.0 | 0.00 | 0.00 | 0.00 | 74 | 1015.0 |
| 20260904091614 | 71 | 197 | 0.0 | 14.0 | 0.00 | 0.00 | 0.00 | 74 | 1015.0 |
| 20260904091514 | 71 | 215 | 5.0 | 14.0 | 0.00 | 0.00 | 0.00 | 74 | 1015.2 |
| 20260904091414 | 71 | 120 | 1.0 | 14.0 | 0.00 | 0.00 | 0.00 | 74 | 1015.2 |
| 20260904091313 | 71 | 180 | 2.0 | 14.0 | 0.00 | 0.00 | 0.00 | 74 | 1015.0 |
| 20260904091237 | 71 | 225 | 7.0 | 14.0 | 0.00 | 0.00 | 0.00 | 74 | 1015.1 |
| 20260904091222 | 71 | 248 | 3.0 | 14.0 | 0.00 | 0.00 | 0.00 | 74 | 1015.1 |
| 20260904091206 | 71 | 251 | 8.0 | 14.0 | 0.00 | 0.00 | 0.00 | 73 | 1015.2 |
| 20260904090931 | 71 | 317 | 2.0 | 14.0 | 0.00 | 0.00 | 0.00 | 74 | 1015.2 |
| 20260904090907 | 71 | 115 | 3.0 | 14.0 | 0.00 | 0.00 | 0.00 | 75 | 1015.4 |
| 20260904090852 | 71 | 195 | 0.0 | 14.0 | 0.00 | 0.00 | 0.00 | 75 | 1015.3 |
| 20260904090836 | 71 | 196 | 0.0 | 14.0 | 0.00 | 0.00 | 0.00 | 74 | 1015.1 |
| 20260904090822 | 71 | 267 | 1.0 | 14.0 | 0.00 | 0.00 | 0.00 | 74 | 1015.3 |
| 20260904090334 | 72 | 235 | 1.0 | 11.0 | 0.00 | 0.00 | 0.00 | 74 | 1015.2 |
| 20260904090049 | 72 | 202 | 3.0 | 11.0 | 0.00 | 0.00 | 0.00 | 74 | 1015.2 |
| 20260904090033 | 72 | 220 | 4.0 | 11.0 | 0.00 | 0.00 | 0.00 | 74 | 1015.3 |
| 20260904085716 | 72 | 237 | 1.0 | 11.0 | 0.00 | 0.00 | 0.00 | 74 | 1015.3 |
| 20260904085615 | 72 | 177 | 0.0 | 11.0 | 0.00 | 0.00 | 0.00 | 74 | 1015.2 |
| 20260904085513 | 72 | 161 | 0.0 | 11.0 | 0.00 | 0.00 | 0.00 | 74 | 1015.4 |
| 20260904085456 | 72 | 218 | 6.0 | 10.0 | 0.00 | 0.00 | 0.00 | 73 | 1015.3 |
| 20260904085440 | 73 | 128 | 2.0 | 10.0 | 0.00 | 0.00 | 0.00 | 73 | 1015.1 |
| 20260904085214 | 73 | 213 | 2.0 | 3.0 | 0.00 | 0.00 | 0.00 | 73 | 1015.2 |
| 20260904085114 | 72 | 193 | 0.0 | 3.0 | 0.00 | 0.00 | 0.00 | 73 | 1015.1 |
| 20260904085015 | 72 | 203 | 0.0 | 3.0 | 0.00 | 0.00 | 0.00 | 73 | 1015.1 |
| 20260904085002 | 72 | 201 | 0.0 | 0.0 | 0.00 | 0.00 | 0.00 | 73 | 1015.1 |
| 20260904084953 | 72 | 206 | 2.0 | 3.0 | 0.00 | 0.00 | 0.00 | 73 | 1015.3 |
| 20260904084937 | 72 | 139 | 0.0 | 1.0 | 0.00 | 0.00 | 0.00 | 73 | 1015.3 |
| 20260904084918 | 72 | 201 | 0.0 | 0.0 | 0.00 | 0.00 | 0.00 | 73 | 1015.1 |
| 20260904084409 | 72 | 154 | 0.0 | 11.0 | 0.00 | 0.00 | 0.00 | 73 | 1015.2 |
| 20260904084308 | 72 | 172 | 0.0 | 11.0 | 0.00 | 0.00 | 0.00 | 73 | 1015.3 |
| 20260904084240 | 73 | 204 | 2.0 | 11.0 | 0.00 | 0.00 | 0.00 | 73 | 1015.3 |
| 20260904084207 | 73 | 244 | 3.0 | 8.0 | 0.00 | 0.00 | 0.00 | 73 | 1015.3 |
| 20260904084108 | 73 | 176 | 1.0 | 9.0 | 0.00 | 0.00 | 0.00 | 72 | 1015.3 |
| 20260904084006 | 73 | 137 | 0.0 | 15.0 | 0.00 | 0.00 | 0.00 | 73 | 1015.2 |
| 20260904083907 | 73 | 196 | 1.0 | 15.0 | 0.00 | 0.00 | 0.00 | 73 | 1015.2 |
| 20260904083807 | 73 | 208 | 0.0 | 15.0 | 0.00 | 0.00 | 0.00 | 72 | 1015.4 |
| 20260904083739 | 73 | 223 | 2.0 | 15.0 | 0.00 | 0.00 | 0.00 | 72 | 1015.4 |
| 20260904083706 | 73 | 214 | 2.0 | 15.0 | 0.00 | 0.00 | 0.00 | 72 | 1015.5 |
| 20260904083634 | 74 | 198 | 2.0 | 6.0 | 0.00 | 0.00 | 0.00 | 72 | 1015.6 |
| 20260904083630 | 73 | 219 | 0.0 | 9.0 | 0.00 | 0.00 | 0.00 | 72 | 1015.5 |
| 20260904083626 | 73 | 217 | 3.0 | 9.0 | 0.00 | 0.00 | 0.00 | 73 | 1015.6 |
| 20260904083618 | 73 | 212 | 1.0 | 15.0 | 0.00 | 0.00 | 0.00 | 72 | 1015.3 |
| 20260904083603 | 73 | 190 | 0.0 | 15.0 | 0.00 | 0.00 | 0.00 | 72 | 1015.3 |
| 20260904083546 | 73 | 227 | 2.0 | 15.0 | 0.00 | 0.00 | 0.00 | 72 | 1015.5 |
| 20260904083314 | 73 | 246 | 2.0 | 15.0 | 0.00 | 0.00 | 0.00 | 71 | 1015.3 |
| 20260904083305 | 73 | 240 | 3.0 | 15.0 | 0.00 | 0.00 | 0.00 | 71 | 1015.3 |
| 20260904083249 | 73 | 65 | 7.0 | 15.0 | 0.00 | 0.00 | 0.00 | 71 | 1015.2 |
| 20260904083233 | 73 | 230 | 2.0 | 14.0 | 0.00 | 0.00 | 0.00 | 71 | 1015.2 |
| 20260904083218 | 74 | 251 | 4.0 | 14.0 | 0.00 | 0.00 | 0.00 | 71 | 1014.9 |
| 20260904083203 | 74 | 259 | 6.0 | 10.0 | 0.00 | 0.00 | 0.00 | 71 | 1015.6 |
| 20260904082934 | 74 | 218 | 0.0 | 6.0 | 0.00 | 0.00 | 0.00 | 72 | 1015.4 |
| 20260904082918 | 73 | 184 | 0.0 | 9.0 | 0.00 | 0.00 | 0.00 | 72 | 1015.3 |
| 20260904082642 | 73 | 198 | 1.0 | 9.0 | 0.00 | 0.00 | 0.00 | 72 | 1015.4 |
| 20260904082627 | 73 | 199 | 0.0 | 9.0 | 0.00 | 0.00 | 0.00 | 72 | 1015.5 |
| 20260904082400 | 73 | 217 | 1.0 | 9.0 | 0.00 | 0.00 | 0.00 | 71 | 1015.5 |
| 20260904082343 | 73 | 188 | 0.0 | 9.0 | 0.00 | 0.00 | 0.00 | 72 | 1015.6 |
| 20260904082108 | 73 | 215 | 1.0 | 9.0 | 0.00 | 0.00 | 0.00 | 73 | 1015.5 |
| 20260904082054 | 73 | 196 | 0.0 | 9.0 | 0.00 | 0.00 | 0.00 | 73 | 1015.6 |
| 20260904081826 | 73 | 227 | 7.0 | 9.0 | 0.00 | 0.00 | 0.00 | 72 | 1015.4 |
| 20260904081523 | 74 | 215 | 1.0 | 7.0 | 0.00 | 0.00 | 0.00 | 71 | 1015.6 |
| 20260904081518 | 74 | 205 | 1.0 | 7.0 | 0.00 | 0.00 | 0.00 | 72 | 1015.6 |
| 20260904081502 | 74 | 196 | 0.0 | 7.0 | 0.00 | 0.00 | 0.00 | 72 | 1015.6 |
| 20260904081446 | 74 | 217 | 4.0 | 7.0 | 0.00 | 0.00 | 0.00 | 71 | 1015.6 |
| 20260904081206 | 74 | 278 | 0.0 | 7.0 | 0.00 | 0.00 | 0.00 | 71 | 1015.4 |
| 20260904081106 | 74 | 191 | 0.0 | 7.0 | 0.00 | 0.00 | 0.00 | 72 | 1015.7 |
| 20260904081007 | 74 | 210 | 3.0 | 13.0 | 0.00 | 0.00 | 0.00 | 71 | 1015.7 |
| 20260904080951 | 73 | 196 | 0.0 | 13.0 | 0.00 | 0.00 | 0.00 | 72 | 1015.6 |
| 20260904080936 | 73 | 188 | 0.0 | 13.0 | 0.00 | 0.00 | 0.00 | 73 | 1015.6 |
| 20260904080920 | 73 | 191 | 0.0 | 13.0 | 0.00 | 0.00 | 0.00 | 74 | 1015.6 |
| 20260904080606 | 73 | 195 | 0.0 | 13.0 | 0.00 | 0.00 | 0.00 | 73 | 1015.5 |
| 20260904080507 | 72 | 191 | 0.0 | 13.0 | 0.00 | 0.00 | 0.00 | 73 | 1015.6 |
| 20260904080406 | 72 | 192 | 0.0 | 13.0 | 0.00 | 0.00 | 0.00 | 75 | 1015.7 |
| 20260904080306 | 71 | 236 | 5.0 | 13.0 | 0.00 | 0.00 | 0.00 | 75 | 1015.7 |
| 20260904080238 | 71 | 196 | 0.0 | 13.0 | 0.00 | 0.00 | 0.00 | 75 | 1015.7 |
| 20260904080206 | 71 | 194 | 0.0 | 13.0 | 0.00 | 0.00 | 0.00 | 75 | 1015.7 |
| 20260904080106 | 71 | 207 | 1.0 | 13.0 | 0.00 | 0.00 | 0.00 | 75 | 1015.4 |
| 20260904080042 | 71 | 89 | 2.0 | 4.0 | 0.00 | 0.00 | 0.00 | 76 | 1015.5 |
| 20260904080026 | 71 | 203 | 1.0 | 4.0 | 0.00 | 0.00 | 0.00 | 76 | 1015.5 |
| 20260904080010 | 71 | 216 | 2.0 | 4.0 | 0.00 | 0.00 | 0.00 | 76 | 1015.8 |
| 20260904075953 | 71 | 200 | 0.0 | 4.0 | 0.00 | 0.00 | 0.00 | 76 | 1015.8 |
| 20260904075945 | 71 | 201 | 0.0 | 4.0 | 0.00 | 0.00 | 0.00 | 76 | 1015.8 |
| 20260904075930 | 71 | 225 | 2.0 | 4.0 | 0.00 | 0.00 | 0.00 | 75 | 1015.7 |
| 20260904075914 | 71 | 215 | 0.0 | 6.0 | 0.00 | 0.00 | 0.00 | 76 | 1015.6 |
| 20260904075420 | 70 | 202 | 0.0 | 9.0 | 0.00 | 0.00 | 0.00 | 77 | 1015.7 |
| 20260904075107 | 70 | 210 | 1.0 | 9.0 | 0.00 | 0.00 | 0.00 | 77 | 1015.8 |
| 20260904075006 | 70 | 227 | 3.0 | 9.0 | 0.00 | 0.00 | 0.00 | 78 | 1015.8 |
| 20260904074907 | 69 | 184 | 2.0 | 9.0 | 0.00 | 0.00 | 0.00 | 78 | 1015.7 |
| 20260904074807 | 69 | 221 | 3.0 | 9.0 | 0.00 | 0.00 | 0.00 | 79 | 1015.8 |
| 20260904074751 | 69 | 204 | 0.0 | 9.0 | 0.00 | 0.00 | 0.00 | 79 | 1015.8 |
| 20260904074743 | 68 | 184 | 0.0 | 9.0 | 0.00 | 0.00 | 0.00 | 79 | 1015.8 |
| 20260904074727 | 68 | 224 | 1.0 | 9.0 | 0.00 | 0.00 | 0.00 | 80 | 1015.5 |
| 20260904074405 | 68 | 242 | 1.0 | 7.0 | 0.00 | 0.00 | 0.00 | 81 | 1016.0 |
| 20260904074306 | 67 | 195 | 0.0 | 7.0 | 0.00 | 0.00 | 0.00 | 81 | 1015.5 |
| 20260904074226 | 67 | 194 | 0.0 | 7.0 | 0.00 | 0.00 | 0.00 | 81 | 1015.5 |
| 20260904074219 | 67 | 214 | 4.0 | 7.0 | 0.00 | 0.00 | 0.00 | 82 | 1015.6 |
| 20260904074213 | 67 | 173 | 0.0 | 7.0 | 0.00 | 0.00 | 0.00 | 81 | 1015.6 |
| 20260904074158 | 67 | 196 | 0.0 | 7.0 | 0.00 | 0.00 | 0.00 | 82 | 1015.7 |
| 20260904074144 | 67 | 208 | 2.0 | 7.0 | 0.00 | 0.00 | 0.00 | 81 | 1015.9 |
| 20260904074127 | 67 | 204 | 2.0 | 7.0 | 0.00 | 0.00 | 0.00 | 82 | 1015.9 |
| 20260904074101 | 67 | 234 | 3.0 | 7.0 | 0.00 | 0.00 | 0.00 | 82 | 1015.7 |
| 20260904074053 | 67 | 209 | 0.0 | 7.0 | 0.00 | 0.00 | 0.00 | 82 | 1015.6 |
| 20260904074037 | 67 | 222 | 2.0 | 7.0 | 0.00 | 0.00 | 0.00 | 82 | 1015.8 |
| 20260904074022 | 67 | 226 | 4.0 | 7.0 | 0.00 | 0.00 | 0.00 | 81 | 1015.7 |
| 20260904074006 | 67 | 194 | 0.0 | 7.0 | 0.00 | 0.00 | 0.00 | 82 | 1015.8 |
| 20260904073952 | 67 | 208 | 1.0 | 7.0 | 0.00 | 0.00 | 0.00 | 82 | 1015.6 |
| 20260904073726 | 67 | 190 | 0.0 | 3.0 | 0.00 | 0.00 | 0.00 | 82 | 1016.1 |
| 20260904073231 | 67 | 214 | 0.0 | 2.0 | 0.00 | 0.00 | 0.00 | 82 | 1015.7 |
| 20260904073216 | 67 | 207 | 1.0 | 2.0 | 0.00 | 0.00 | 0.00 | 82 | 1015.8 |
| 20260904073159 | 67 | 214 | 0.0 | 2.0 | 0.00 | 0.00 | 0.00 | 82 | 1015.8 |
| 20260904072406 | 67 | 196 | 0.0 | 2.0 | 0.00 | 0.00 | 0.00 | 82 | 1016.0 |
| 20260904072306 | 67 | 217 | 0.0 | 2.0 | 0.00 | 0.00 | 0.00 | 82 | 1016.0 |
| 20260904072226 | 67 | 208 | 0.0 | 2.0 | 0.00 | 0.00 | 0.00 | 82 | 1015.9 |
| 20260904072207 | 67 | 205 | 1.0 | 3.0 | 0.00 | 0.00 | 0.00 | 82 | 1015.9 |
| 20260904072106 | 67 | 207 | 0.0 | 4.0 | 0.00 | 0.00 | 0.00 | 82 | 1016.0 |
| 20260904072006 | 67 | 196 | 0.0 | 4.0 | 0.00 | 0.00 | 0.00 | 82 | 1016.1 |
| 20260904071906 | 67 | 211 | 0.0 | 4.0 | 0.00 | 0.00 | 0.00 | 82 | 1015.9 |
| 20260904071806 | 67 | 205 | 0.0 | 4.0 | 0.00 | 0.00 | 0.00 | 82 | 1015.8 |
| 20260904071727 | 67 | 206 | 0.0 | 4.0 | 0.00 | 0.00 | 0.00 | 82 | 1015.8 |
| 20260904071706 | 67 | 208 | 0.0 | 6.0 | 0.00 | 0.00 | 0.00 | 82 | 1015.8 |
| 20260904071642 | 67 | 203 | 0.0 | 6.0 | 0.00 | 0.00 | 0.00 | 82 | 1016.2 |
| 20260904071626 | 67 | 205 | 0.0 | 6.0 | 0.00 | 0.00 | 0.00 | 82 | 1015.9 |
| 20260904071306 | 66 | 201 | 0.0 | 6.0 | 0.00 | 0.00 | 0.00 | 82 | 1016.0 |
| 20260904071226 | 66 | 218 | 2.0 | 6.0 | 0.00 | 0.00 | 0.00 | 82 | 1016.0 |
| 20260904071206 | 66 | 196 | 0.0 | 6.0 | 0.00 | 0.00 | 0.00 | 82 | 1016.0 |
| 20260904071054 | 67 | 199 | 1.0 | 6.0 | 0.00 | 0.00 | 0.00 | 82 | 1016.0 |
| 20260904070954 | 67 | 227 | 2.0 | 6.0 | 0.00 | 0.00 | 0.00 | 82 | 1015.9 |
| 20260904070854 | 67 | 204 | 1.0 | 6.0 | 0.00 | 0.00 | 0.00 | 82 | 1016.0 |
| 20260904070755 | 67 | 200 | 0.0 | 6.0 | 0.00 | 0.00 | 0.00 | 81 | 1015.7 |
| 20260904070725 | 67 | 239 | 3.0 | 6.0 | 0.00 | 0.00 | 0.00 | 81 | 1015.7 |
| 20260904070653 | 67 | 195 | 0.0 | 6.0 | 0.00 | 0.00 | 0.00 | 82 | 1015.9 |
| 20260904070553 | 67 | 198 | 0.0 | 6.0 | 0.00 | 0.00 | 0.00 | 82 | 1015.9 |
| 20260904070455 | 67 | 196 | 0.0 | 6.0 | 0.00 | 0.00 | 0.00 | 82 | 1015.9 |
| 20260904070354 | 67 | 195 | 0.0 | 6.0 | 0.00 | 0.00 | 0.00 | 82 | 1015.9 |
| 20260904070328 | 66 | 200 | 0.0 | 3.0 | 0.00 | 0.00 | 0.00 | 82 | 1016.0 |
| 20260904070322 | 66 | 191 | 0.0 | 3.0 | 0.00 | 0.00 | 0.00 | 83 | 1016.0 |
| 20260904070316 | 67 | 206 | 0.0 | 6.0 | 0.00 | 0.00 | 0.00 | 82 | 1015.8 |
| 20260904070301 | 67 | 191 | 0.0 | 6.0 | 0.00 | 0.00 | 0.00 | 82 | 1015.8 |
| 20260904070252 | 67 | 198 | 0.0 | 6.0 | 0.00 | 0.00 | 0.00 | 82 | 1015.7 |
| 20260904070237 | 67 | 204 | 0.0 | 6.0 | 0.00 | 0.00 | 0.00 | 81 | 1016.0 |
| 20260904070000 | 67 | 226 | 4.0 | 6.0 | 0.00 | 0.00 | 0.00 | 81 | 1015.7 |
| 20260904065943 | 67 | 203 | 2.0 | 3.0 | 0.00 | 0.00 | 0.00 | 81 | 1015.8 |
| 20260904065927 | 67 | 221 | 2.0 | 3.0 | 0.00 | 0.00 | 0.00 | 81 | 1015.8 |
| 20260904065918 | 67 | 208 | 2.0 | 3.0 | 0.00 | 0.00 | 0.00 | 81 | 1015.9 |
| 20260904065902 | 67 | 200 | 1.0 | 3.0 | 0.00 | 0.00 | 0.00 | 81 | 1015.8 |
| 20260904065847 | 67 | 209 | 1.0 | 3.0 | 0.00 | 0.00 | 0.00 | 81 | 1016.0 |
| 20260904065830 | 67 | 197 | 0.0 | 3.0 | 0.00 | 0.00 | 0.00 | 82 | 1015.8 |
| 20260904065343 | 66 | 187 | 0.0 | 3.0 | 0.00 | 0.00 | 0.00 | 82 | 1016.0 |
| 20260904065327 | 66 | 206 | 1.0 | 3.0 | 0.00 | 0.00 | 0.00 | 83 | 1016.0 |
| 20260904065311 | 66 | 231 | 2.0 | 3.0 | 0.00 | 0.00 | 0.00 | 83 | 1015.9 |
| 20260904065255 | 66 | 190 | 0.0 | 3.0 | 0.00 | 0.00 | 0.00 | 83 | 1016.1 |
| 20260904065240 | 66 | 244 | 0.0 | 3.0 | 0.00 | 0.00 | 0.00 | 83 | 1016.0 |
| 20260904065010 | 66 | 196 | 0.0 | 4.0 | 0.00 | 0.00 | 0.00 | 83 | 1015.8 |
| 20260904064954 | 66 | 191 | 1.0 | 4.0 | 0.00 | 0.00 | 0.00 | 83 | 1015.8 |
| 20260904064227 | 65 | 205 | 0.0 | 4.0 | 0.00 | 0.00 | 0.00 | 84 | 1015.8 |
| 20260904064155 | 65 | 174 | 0.0 | 4.0 | 0.00 | 0.00 | 0.00 | 84 | 1016.0 |
| 20260904064054 | 65 | 188 | 0.0 | 4.0 | 0.00 | 0.00 | 0.00 | 84 | 1016.1 |
| 20260904063954 | 65 | 196 | 0.0 | 4.0 | 0.00 | 0.00 | 0.00 | 84 | 1016.0 |
| 20260904063854 | 65 | 181 | 0.0 | 4.0 | 0.00 | 0.00 | 0.00 | 84 | 1015.9 |
| 20260904063754 | 65 | 210 | 0.0 | 4.0 | 0.00 | 0.00 | 0.00 | 84 | 1016.0 |
| 20260904063727 | 65 | 203 | 1.0 | 4.0 | 0.00 | 0.00 | 0.00 | 84 | 1016.0 |
| 20260904063654 | 65 | 186 | 0.0 | 4.0 | 0.00 | 0.00 | 0.00 | 84 | 1015.9 |
| 20260904063553 | 65 | 202 | 2.0 | 4.0 | 0.00 | 0.00 | 0.00 | 84 | 1016.0 |
| 20260904063455 | 65 | 203 | 0.0 | 4.0 | 0.00 | 0.00 | 0.00 | 84 | 1015.9 |
| 20260904063354 | 65 | 214 | 3.0 | 4.0 | 0.00 | 0.00 | 0.00 | 84 | 1015.8 |
| 20260904063337 | 65 | 200 | 0.0 | 2.0 | 0.00 | 0.00 | 0.00 | 84 | 1015.9 |
| 20260904063323 | 65 | 206 | 0.0 | 2.0 | 0.00 | 0.00 | 0.00 | 84 | 1015.9 |
| 20260904063314 | 65 | 206 | 1.0 | 2.0 | 0.00 | 0.00 | 0.00 | 84 | 1015.8 |
| 20260904062954 | 65 | 184 | 0.0 | 2.0 | 0.00 | 0.00 | 0.00 | 84 | 1016.0 |
| 20260904062855 | 65 | 208 | 0.0 | 2.0 | 0.00 | 0.00 | 0.00 | 84 | 1015.8 |
| 20260904062754 | 65 | 204 | 1.0 | 2.0 | 0.00 | 0.00 | 0.00 | 84 | 1015.8 |
| 20260904062726 | 65 | 190 | 0.0 | 2.0 | 0.00 | 0.00 | 0.00 | 84 | 1015.8 |
| 20260904062654 | 65 | 203 | 1.0 | 2.0 | 0.00 | 0.00 | 0.00 | 84 | 1015.8 |
| 20260904062554 | 65 | 185 | 0.0 | 2.0 | 0.00 | 0.00 | 0.00 | 84 | 1015.8 |
| 20260904062454 | 65 | 200 | 0.0 | 3.0 | 0.00 | 0.00 | 0.00 | 84 | 1015.8 |
| 20260904062354 | 65 | 199 | 0.0 | 3.0 | 0.00 | 0.00 | 0.00 | 85 | 1016.0 |
| 20260904062254 | 64 | 195 | 0.0 | 3.0 | 0.00 | 0.00 | 0.00 | 84 | 1015.9 |
| 20260904062226 | 64 | 191 | 0.0 | 3.0 | 0.00 | 0.00 | 0.00 | 84 | 1015.9 |
| 20260904062154 | 64 | 178 | 0.0 | 3.0 | 0.00 | 0.00 | 0.00 | 85 | 1016.0 |
| 20260904062053 | 64 | 200 | 0.0 | 3.0 | 0.00 | 0.00 | 0.00 | 85 | 1015.9 |
| 20260904061954 | 64 | 205 | 1.0 | 3.0 | 0.00 | 0.00 | 0.00 | 85 | 1015.7 |
| 20260904061855 | 64 | 201 | 0.0 | 3.0 | 0.00 | 0.00 | 0.00 | 85 | 1016.0 |
| 20260904061753 | 64 | 197 | 0.0 | 3.0 | 0.00 | 0.00 | 0.00 | 85 | 1015.7 |
| 20260904061726 | 64 | 202 | 0.0 | 3.0 | 0.00 | 0.00 | 0.00 | 85 | 1015.7 |
| 20260904061654 | 64 | 204 | 0.0 | 3.0 | 0.00 | 0.00 | 0.00 | 85 | 1015.8 |
| 20260904061554 | 64 | 216 | 2.0 | 3.0 | 0.00 | 0.00 | 0.00 | 85 | 1015.9 |
| 20260904061454 | 64 | 227 | 0.0 | 3.0 | 0.00 | 0.00 | 0.00 | 85 | 1015.9 |
| 20260904061354 | 64 | 200 | 0.0 | 3.0 | 0.00 | 0.00 | 0.00 | 85 | 1015.9 |
| 20260904061254 | 64 | 181 | 0.0 | 3.0 | 0.00 | 0.00 | 0.00 | 85 | 1015.9 |
| 20260904061226 | 64 | 188 | 0.0 | 3.0 | 0.00 | 0.00 | 0.00 | 85 | 1015.9 |
| 20260904061154 | 64 | 187 | 0.0 | 3.0 | 0.00 | 0.00 | 0.00 | 85 | 1015.8 |
| 20260904061054 | 64 | 196 | 0.0 | 3.0 | 0.00 | 0.00 | 0.00 | 85 | 1015.8 |
| 20260904060954 | 64 | 231 | 1.0 | 1.0 | 0.00 | 0.00 | 0.00 | 85 | 1015.8 |
| 20260904060854 | 64 | 195 | 0.0 | 1.0 | 0.00 | 0.00 | 0.00 | 85 | 1015.6 |
| 20260904060754 | 64 | 201 | 0.0 | 1.0 | 0.00 | 0.00 | 0.00 | 85 | 1015.7 |
| 20260904060727 | 64 | 208 | 0.0 | 1.0 | 0.00 | 0.00 | 0.00 | 85 | 1015.7 |
| 20260904060654 | 64 | 206 | 1.0 | 1.0 | 0.00 | 0.00 | 0.00 | 85 | 1015.8 |
| 20260904060555 | 64 | 191 | 0.0 | 1.0 | 0.00 | 0.00 | 0.00 | 85 | 1016.0 |
| 20260904060454 | 64 | 201 | 0.0 | 1.0 | 0.00 | 0.00 | 0.00 | 85 | 1015.8 |
| 20260904060354 | 64 | 212 | 1.0 | 1.0 | 0.00 | 0.00 | 0.00 | 85 | 1015.8 |
| 20260904060254 | 64 | 199 | 0.0 | 1.0 | 0.00 | 0.00 | 0.00 | 85 | 1015.7 |
| 20260904060226 | 64 | 200 | 0.0 | 1.0 | 0.00 | 0.00 | 0.00 | 85 | 1015.7 |
| 20260904060154 | 64 | 200 | 0.0 | 1.0 | 0.00 | 0.00 | 0.00 | 85 | 1015.7 |
| 20260904060053 | 64 | 193 | 0.0 | 1.0 | 0.00 | 0.00 | 0.00 | 85 | 1015.8 |
| 20260904055955 | 64 | 192 | 0.0 | 1.0 | 0.00 | 0.00 | 0.00 | 85 | 1015.8 |
| 20260904055854 | 64 | 195 | 0.0 | 1.0 | 0.00 | 0.00 | 0.00 | 85 | 1015.7 |
| 20260904055754 | 64 | 195 | 0.0 | 1.0 | 0.00 | 0.00 | 0.00 | 85 | 1015.8 |
| 20260904055726 | 64 | 196 | 0.0 | 1.0 | 0.00 | 0.00 | 0.00 | 85 | 1015.8 |
| 20260904055656 | 64 | 193 | 0.0 | 1.0 | 0.00 | 0.00 | 0.00 | 86 | 1015.9 |
| 20260904055554 | 64 | 199 | 0.0 | 1.0 | 0.00 | 0.00 | 0.00 | 86 | 1015.8 |
| 20260904055454 | 64 | 202 | 0.0 | 2.0 | 0.00 | 0.00 | 0.00 | 86 | 1016.0 |
| 20260904055354 | 64 | 191 | 0.0 | 2.0 | 0.00 | 0.00 | 0.00 | 86 | 1015.8 |
| 20260904055328 | 64 | 196 | 0.0 | 2.0 | 0.00 | 0.00 | 0.00 | 86 | 1015.9 |
| 20260904055315 | 64 | 201 | 0.0 | 2.0 | 0.00 | 0.00 | 0.00 | 86 | 1015.9 |
| 20260904055306 | 64 | 211 | 0.0 | 2.0 | 0.00 | 0.00 | 0.00 | 86 | 1015.8 |
| 20260904055251 | 64 | 188 | 0.0 | 2.0 | 0.00 | 0.00 | 0.00 | 86 | 1015.9 |
| 20260904055015 | 63 | 204 | 0.0 | 3.0 | 0.00 | 0.00 | 0.00 | 86 | 1015.7 |
| 20260904054726 | 63 | 196 | 0.0 | 3.0 | 0.00 | 0.00 | 0.00 | 86 | 1015.6 |
| 20260904054654 | 63 | 191 | 0.0 | 3.0 | 0.00 | 0.00 | 0.00 | 86 | 1015.8 |
| 20260904054554 | 63 | 196 | 0.0 | 3.0 | 0.00 | 0.00 | 0.00 | 86 | 1015.7 |
| 20260904054454 | 63 | 198 | 0.0 | 3.0 | 0.00 | 0.00 | 0.00 | 86 | 1015.5 |
| 20260904054354 | 63 | 202 | 0.0 | 4.0 | 0.00 | 0.00 | 0.00 | 86 | 1015.4 |
| 20260904054254 | 63 | 196 | 0.0 | 4.0 | 0.00 | 0.00 | 0.00 | 86 | 1015.6 |
| 20260904054226 | 63 | 203 | 0.0 | 4.0 | 0.00 | 0.00 | 0.00 | 86 | 1015.6 |
| 20260904054154 | 63 | 203 | 0.0 | 4.0 | 0.00 | 0.00 | 0.00 | 86 | 1015.6 |
| 20260904054054 | 63 | 203 | 0.0 | 4.0 | 0.00 | 0.00 | 0.00 | 86 | 1015.6 |
| 20260904053954 | 63 | 196 | 0.0 | 4.0 | 0.00 | 0.00 | 0.00 | 86 | 1015.5 |
| 20260904053938 | 63 | 195 | 0.0 | 7.0 | 0.00 | 0.00 | 0.00 | 86 | 1015.6 |
| 20260904053922 | 63 | 191 | 0.0 | 7.0 | 0.00 | 0.00 | 0.00 | 86 | 1015.5 |
| 20260904053907 | 63 | 205 | 0.0 | 7.0 | 0.00 | 0.00 | 0.00 | 86 | 1015.5 |
| 20260904053635 | 63 | 214 | 2.0 | 7.0 | 0.00 | 0.00 | 0.00 | 86 | 1015.4 |
| 20260904053627 | 63 | 196 | 0.0 | 7.0 | 0.00 | 0.00 | 0.00 | 86 | 1015.5 |
| 20260904053611 | 63 | 205 | 3.0 | 7.0 | 0.00 | 0.00 | 0.00 | 86 | 1015.4 |
| 20260904053555 | 63 | 209 | 3.0 | 7.0 | 0.00 | 0.00 | 0.00 | 86 | 1015.5 |
| 20260904053540 | 63 | 201 | 0.0 | 7.0 | 0.00 | 0.00 | 0.00 | 86 | 1015.4 |
| 20260904053314 | 63 | 200 | 2.0 | 7.0 | 0.00 | 0.00 | 0.00 | 86 | 1015.5 |
| 20260904052955 | 63 | 229 | 2.0 | 3.0 | 0.00 | 0.00 | 0.00 | 86 | 1015.5 |
| 20260904052854 | 63 | 207 | 0.0 | 4.0 | 0.00 | 0.00 | 0.00 | 86 | 1015.4 |
| 20260904052755 | 63 | 215 | 0.0 | 4.0 | 0.00 | 0.00 | 0.00 | 85 | 1015.6 |
| 20260904052725 | 63 | 206 | 0.0 | 4.0 | 0.00 | 0.00 | 0.00 | 85 | 1015.6 |
| 20260904052656 | 63 | 204 | 0.0 | 4.0 | 0.00 | 0.00 | 0.00 | 86 | 1015.5 |
| 20260904052554 | 63 | 204 | 0.0 | 4.0 | 0.00 | 0.00 | 0.00 | 85 | 1015.6 |
| 20260904052530 | 63 | 180 | 0.0 | 4.0 | 0.00 | 0.00 | 0.00 | 85 | 1015.6 |
| 20260904052514 | 63 | 207 | 0.0 | 4.0 | 0.00 | 0.00 | 0.00 | 85 | 1015.5 |
| 20260904052226 | 63 | 200 | 0.0 | 4.0 | 0.00 | 0.00 | 0.00 | 85 | 1015.5 |
| 20260904052154 | 63 | 198 | 0.0 | 4.0 | 0.00 | 0.00 | 0.00 | 85 | 1015.6 |
| 20260904052055 | 63 | 206 | 0.0 | 4.0 | 0.00 | 0.00 | 0.00 | 85 | 1015.7 |
| 20260904052027 | 63 | 208 | 0.0 | 2.0 | 0.00 | 0.00 | 0.00 | 85 | 1015.8 |
| 20260904052019 | 63 | 198 | 0.0 | 4.0 | 0.00 | 0.00 | 0.00 | 85 | 1015.7 |
| 20260904052002 | 63 | 200 | 0.0 | 2.0 | 0.00 | 0.00 | 0.00 | 85 | 1015.6 |
| 20260904051945 | 63 | 204 | 0.0 | 2.0 | 0.00 | 0.00 | 0.00 | 85 | 1015.8 |
| 20260904051655 | 63 | 206 | 0.0 | 2.0 | 0.00 | 0.00 | 0.00 | 85 | 1015.7 |
| 20260904051633 | 63 | 205 | 0.0 | 2.0 | 0.00 | 0.00 | 0.00 | 86 | 1015.6 |
| 20260904051624 | 63 | 198 | 0.0 | 2.0 | 0.00 | 0.00 | 0.00 | 85 | 1015.4 |
| 20260904051609 | 63 | 208 | 1.0 | 2.0 | 0.00 | 0.00 | 0.00 | 85 | 1015.6 |
| 20260904051552 | 63 | 210 | 0.0 | 2.0 | 0.00 | 0.00 | 0.00 | 85 | 1015.5 |
| 20260904051536 | 63 | 234 | 0.0 | 2.0 | 0.00 | 0.00 | 0.00 | 85 | 1015.7 |
| 20260904051523 | 63 | 204 | 0.0 | 2.0 | 0.00 | 0.00 | 0.00 | 85 | 1015.7 |
| 20260904051514 | 63 | 204 | 0.0 | 2.0 | 0.00 | 0.00 | 0.00 | 85 | 1015.6 |
| 20260904051459 | 63 | 207 | 1.0 | 2.0 | 0.00 | 0.00 | 0.00 | 85 | 1015.5 |
| 20260904051223 | 63 | 210 | 2.0 | 2.0 | 0.00 | 0.00 | 0.00 | 85 | 1015.5 |
| 20260904051207 | 63 | 197 | 0.0 | 2.0 | 0.00 | 0.00 | 0.00 | 85 | 1015.5 |
| 20260904051153 | 63 | 205 | 0.0 | 2.0 | 0.00 | 0.00 | 0.00 | 85 | 1015.5 |
| 20260904050923 | 63 | 201 | 0.0 | 1.0 | 0.00 | 0.00 | 0.00 | 85 | 1015.5 |
| 20260904050907 | 63 | 197 | 0.0 | 1.0 | 0.00 | 0.00 | 0.00 | 86 | 1015.8 |
| 20260904050852 | 63 | 201 | 0.0 | 1.0 | 0.00 | 0.00 | 0.00 | 86 | 1015.6 |
| 20260904050351 | 63 | 204 | 0.0 | 2.0 | 0.00 | 0.00 | 0.00 | 86 | 1015.6 |
| 20260904050336 | 63 | 205 | 0.0 | 2.0 | 0.00 | 0.00 | 0.00 | 86 | 1015.6 |
| 20260904045754 | 63 | 205 | 0.0 | 4.0 | 0.00 | 0.00 | 0.00 | 86 | 1015.5 |
| 20260904045727 | 63 | 204 | 0.0 | 4.0 | 0.00 | 0.00 | 0.00 | 86 | 1015.5 |
| 20260904045656 | 63 | 167 | 0.0 | 4.0 | 0.00 | 0.00 | 0.00 | 86 | 1015.4 |
| 20260904045555 | 63 | 184 | 0.0 | 4.0 | 0.00 | 0.00 | 0.00 | 86 | 1015.8 |
| 20260904045455 | 63 | 197 | 0.0 | 4.0 | 0.00 | 0.00 | 0.00 | 86 | 1015.6 |
| 20260904045437 | 63 | 206 | 0.0 | 4.0 | 0.00 | 0.00 | 0.00 | 86 | 1015.6 |
| 20260904045421 | 63 | 200 | 0.0 | 4.0 | 0.00 | 0.00 | 0.00 | 86 | 1015.6 |
| 20260904045408 | 63 | 205 | 0.0 | 4.0 | 0.00 | 0.00 | 0.00 | 86 | 1015.6 |
| 20260904045055 | 63 | 220 | 0.0 | 4.0 | 0.00 | 0.00 | 0.00 | 86 | 1015.4 |
| 20260904044956 | 63 | 212 | 0.0 | 4.0 | 0.00 | 0.00 | 0.00 | 86 | 1015.5 |
| 20260904044941 | 63 | 205 | 1.0 | 4.0 | 0.00 | 0.00 | 0.00 | 86 | 1015.5 |
| 20260904044925 | 63 | 222 | 2.0 | 3.0 | 0.00 | 0.00 | 0.00 | 86 | 1015.7 |
| 20260904044909 | 63 | 235 | 1.0 | 3.0 | 0.00 | 0.00 | 0.00 | 86 | 1015.7 |
| 20260904044554 | 63 | 212 | 2.0 | 3.0 | 0.00 | 0.00 | 0.00 | 86 | 1015.7 |
| 20260904044454 | 63 | 204 | 0.0 | 2.0 | 0.00 | 0.00 | 0.00 | 86 | 1015.7 |
| 20260904044355 | 63 | 206 | 0.0 | 2.0 | 0.00 | 0.00 | 0.00 | 86 | 1015.7 |
| 20260904044254 | 63 | 206 | 0.0 | 2.0 | 0.00 | 0.00 | 0.00 | 86 | 1016.0 |
| 20260904044226 | 63 | 207 | 0.0 | 2.0 | 0.00 | 0.00 | 0.00 | 86 | 1016.0 |
| 20260904044155 | 63 | 205 | 0.0 | 2.0 | 0.00 | 0.00 | 0.00 | 86 | 1016.0 |
| 20260904044054 | 63 | 194 | 0.0 | 2.0 | 0.00 | 0.00 | 0.00 | 86 | 1016.0 |
| 20260904043955 | 63 | 202 | 0.0 | 1.0 | 0.00 | 0.00 | 0.00 | 86 | 1016.1 |
| 20260904043854 | 63 | 195 | 0.0 | 1.0 | 0.00 | 0.00 | 0.00 | 86 | 1015.9 |
| 20260904043832 | 62 | 195 | 1.0 | 2.0 | 0.00 | 0.00 | 0.00 | 86 | 1015.9 |
| 20260904043828 | 62 | 228 | 0.0 | 2.0 | 0.00 | 0.00 | 0.00 | 86 | 1015.5 |
| 20260904043805 | 62 | 207 | 0.0 | 1.0 | 0.00 | 0.00 | 0.00 | 86 | 1016.1 |
| 20260904043756 | 62 | 199 | 0.0 | 1.0 | 0.00 | 0.00 | 0.00 | 86 | 1016.0 |
| 20260904043740 | 62 | 197 | 0.0 | 1.0 | 0.00 | 0.00 | 0.00 | 86 | 1016.0 |
| 20260904043725 | 62 | 281 | 0.0 | 2.0 | 0.00 | 0.00 | 0.00 | 86 | 1015.8 |
| 20260904043708 | 62 | 205 | 0.0 | 2.0 | 0.00 | 0.00 | 0.00 | 86 | 1016.0 |
| 20260904043652 | 62 | 195 | 1.0 | 2.0 | 0.00 | 0.00 | 0.00 | 86 | 1015.9 |
| 20260904043425 | 62 | 204 | 0.0 | 2.0 | 0.00 | 0.00 | 0.00 | 86 | 1015.8 |
| 20260904043149 | 62 | 200 | 0.0 | 2.0 | 0.00 | 0.00 | 0.00 | 86 | 1015.5 |
| 20260904043133 | 62 | 195 | 0.0 | 2.0 | 0.00 | 0.00 | 0.00 | 86 | 1015.7 |
| 20260904043118 | 62 | 197 | 0.0 | 2.0 | 0.00 | 0.00 | 0.00 | 86 | 1015.5 |
| 20260904042849 | 62 | 204 | 0.0 | 2.0 | 0.00 | 0.00 | 0.00 | 86 | 1015.8 |
| 20260904042614 | 62 | 186 | 0.0 | 2.0 | 0.00 | 0.00 | 0.00 | 86 | 1015.7 |
| 20260904042254 | 62 | 205 | 1.0 | 2.0 | 0.00 | 0.00 | 0.00 | 86 | 1015.7 |
| 20260904042227 | 62 | 204 | 0.0 | 2.0 | 0.00 | 0.00 | 0.00 | 86 | 1015.7 |
| 20260904042153 | 62 | 205 | 0.0 | 2.0 | 0.00 | 0.00 | 0.00 | 86 | 1015.7 |
| 20260904042054 | 62 | 204 | 0.0 | 2.0 | 0.00 | 0.00 | 0.00 | 86 | 1015.7 |
| 20260904042027 | 62 | 206 | 0.0 | 2.0 | 0.00 | 0.00 | 0.00 | 86 | 1015.5 |
| 20260904042019 | 62 | 207 | 0.0 | 2.0 | 0.00 | 0.00 | 0.00 | 86 | 1015.6 |
| 20260904042003 | 62 | 212 | 0.0 | 2.0 | 0.00 | 0.00 | 0.00 | 86 | 1015.7 |
| 20260904041948 | 62 | 203 | 0.0 | 2.0 | 0.00 | 0.00 | 0.00 | 86 | 1015.5 |
| 20260904041654 | 62 | 207 | 0.0 | 2.0 | 0.00 | 0.00 | 0.00 | 86 | 1015.6 |
| 20260904041554 | 62 | 206 | 0.0 | 2.0 | 0.00 | 0.00 | 0.00 | 86 | 1015.6 |
| 20260904041454 | 62 | 199 | 0.0 | 2.0 | 0.00 | 0.00 | 0.00 | 86 | 1015.7 |
| 20260904041354 | 62 | 207 | 0.0 | 2.0 | 0.00 | 0.00 | 0.00 | 86 | 1015.8 |
| 20260904041338 | 62 | 199 | 0.0 | 2.0 | 0.00 | 0.00 | 0.00 | 86 | 1015.6 |
| 20260904041324 | 62 | 210 | 0.0 | 2.0 | 0.00 | 0.00 | 0.00 | 86 | 1015.6 |
| 20260904041315 | 62 | 196 | 0.0 | 2.0 | 0.00 | 0.00 | 0.00 | 86 | 1015.5 |
| 20260904041030 | 62 | 206 | 0.0 | 3.0 | 0.00 | 0.00 | 0.00 | 86 | 1015.6 |
| 20260904041014 | 62 | 196 | 0.0 | 3.0 | 0.00 | 0.00 | 0.00 | 86 | 1015.5 |
| 20260904040726 | 62 | 209 | 1.0 | 3.0 | 0.00 | 0.00 | 0.00 | 86 | 1015.7 |
| 20260904040654 | 62 | 196 | 0.0 | 3.0 | 0.00 | 0.00 | 0.00 | 86 | 1015.5 |
| 20260904040554 | 62 | 206 | 0.0 | 3.0 | 0.00 | 0.00 | 0.00 | 86 | 1015.5 |
| 20260904040530 | 62 | 203 | 0.0 | 3.0 | 0.00 | 0.00 | 0.00 | 86 | 1015.5 |
| 20260904040513 | 62 | 205 | 0.0 | 3.0 | 0.00 | 0.00 | 0.00 | 86 | 1015.4 |
| 20260904040227 | 62 | 204 | 0.0 | 3.0 | 0.00 | 0.00 | 0.00 | 86 | 1015.6 |
| 20260904040153 | 62 | 231 | 0.0 | 1.0 | 0.00 | 0.00 | 0.00 | 86 | 1015.6 |
| 20260904040055 | 62 | 205 | 0.0 | 1.0 | 0.00 | 0.00 | 0.00 | 86 | 1015.6 |
| 20260904035953 | 62 | 200 | 0.0 | 1.0 | 0.00 | 0.00 | 0.00 | 86 | 1015.5 |
| 20260904035855 | 62 | 201 | 0.0 | 2.0 | 0.00 | 0.00 | 0.00 | 86 | 1015.6 |
| 20260904035727 | 62 | 209 | 0.0 | 2.0 | 0.00 | 0.00 | 0.00 | 86 | 1015.8 |
| 20260904035656 | 62 | 207 | 0.0 | 2.0 | 0.00 | 0.00 | 0.00 | 86 | 1015.8 |
| 20260904035616 | 62 | 208 | 0.0 | 2.0 | 0.00 | 0.00 | 0.00 | 85 | 1015.8 |
| 20260904035607 | 62 | 209 | 0.0 | 2.0 | 0.00 | 0.00 | 0.00 | 86 | 1015.6 |
| 20260904035552 | 62 | 206 | 0.0 | 2.0 | 0.00 | 0.00 | 0.00 | 86 | 1015.7 |
| 20260904035536 | 62 | 201 | 0.0 | 2.0 | 0.00 | 0.00 | 0.00 | 85 | 1015.6 |
| 20260904035257 | 62 | 231 | 0.0 | 2.0 | 0.00 | 0.00 | 0.00 | 85 | 1015.8 |
| 20260904035248 | 62 | 205 | 0.0 | 2.0 | 0.00 | 0.00 | 0.00 | 85 | 1016.0 |
| 20260904035221 | 62 | 205 | 0.0 | 2.0 | 0.00 | 0.00 | 0.00 | 85 | 1015.8 |
| 20260904034946 | 62 | 205 | 0.0 | 2.0 | 0.00 | 0.00 | 0.00 | 85 | 1015.8 |
| 20260904034654 | 62 | 207 | 0.0 | 2.0 | 0.00 | 0.00 | 0.00 | 85 | 1015.8 |
| 20260904034553 | 62 | 202 | 0.0 | 1.0 | 0.00 | 0.00 | 0.00 | 85 | 1015.8 |
| 20260904034454 | 62 | 207 | 0.0 | 1.0 | 0.00 | 0.00 | 0.00 | 85 | 1015.7 |
| 20260904034354 | 62 | 197 | 0.0 | 1.0 | 0.00 | 0.00 | 0.00 | 85 | 1016.0 |
| 20260904034326 | 62 | 207 | 0.0 | 2.0 | 0.00 | 0.00 | 0.00 | 85 | 1015.7 |
| 20260904034318 | 62 | 211 | 0.0 | 1.0 | 0.00 | 0.00 | 0.00 | 85 | 1015.6 |
| 20260904034305 | 62 | 200 | 0.0 | 1.0 | 0.00 | 0.00 | 0.00 | 85 | 1015.6 |
| 20260904034256 | 62 | 204 | 0.0 | 1.0 | 0.00 | 0.00 | 0.00 | 85 | 1015.9 |
| 20260904034240 | 62 | 203 | 0.0 | 1.0 | 0.00 | 0.00 | 0.00 | 85 | 1015.9 |
| 20260904034225 | 62 | 206 | 0.0 | 1.0 | 0.00 | 0.00 | 0.00 | 85 | 1015.9 |
| 20260904034211 | 62 | 195 | 0.0 | 1.0 | 0.00 | 0.00 | 0.00 | 85 | 1016.1 |
| 20260904033935 | 62 | 207 | 0.0 | 4.0 | 0.00 | 0.00 | 0.00 | 85 | 1016.1 |
| 20260904033926 | 62 | 206 | 0.0 | 6.0 | 0.00 | 0.00 | 0.00 | 85 | 1015.9 |
| 20260904033651 | 62 | 206 | 0.0 | 6.0 | 0.00 | 0.00 | 0.00 | 85 | 1016.1 |
| 20260904033635 | 62 | 205 | 0.0 | 6.0 | 0.00 | 0.00 | 0.00 | 85 | 1015.7 |
| 20260904033620 | 62 | 200 | 0.0 | 6.0 | 0.00 | 0.00 | 0.00 | 85 | 1015.7 |
| 20260904033606 | 62 | 202 | 0.0 | 6.0 | 0.00 | 0.00 | 0.00 | 85 | 1015.7 |
| 20260904033557 | 62 | 210 | 0.0 | 6.0 | 0.00 | 0.00 | 0.00 | 85 | 1015.7 |
| 20260904033541 | 62 | 208 | 0.0 | 6.0 | 0.00 | 0.00 | 0.00 | 85 | 1015.7 |
| 20260904033525 | 62 | 202 | 0.0 | 6.0 | 0.00 | 0.00 | 0.00 | 85 | 1015.8 |
| 20260904033248 | 62 | 215 | 3.0 | 6.0 | 0.00 | 0.00 | 0.00 | 85 | 1015.7 |
| 20260904032454 | 62 | 205 | 0.0 | 1.0 | 0.00 | 0.00 | 0.00 | 85 | 1016.0 |
| 20260904032432 | 62 | 205 | 0.0 | 1.0 | 0.00 | 0.00 | 0.00 | 85 | 1015.8 |
| 20260904032416 | 62 | 200 | 0.0 | 1.0 | 0.00 | 0.00 | 0.00 | 85 | 1015.9 |
| 20260904032403 | 62 | 196 | 0.0 | 1.0 | 0.00 | 0.00 | 0.00 | 85 | 1015.9 |
| 20260904032355 | 62 | 203 | 0.0 | 1.0 | 0.00 | 0.00 | 0.00 | 85 | 1015.8 |
| 20260904032114 | 62 | 200 | 0.0 | 1.0 | 0.00 | 0.00 | 0.00 | 85 | 1016.0 |
| 20260904031754 | 62 | 204 | 0.0 | 1.0 | 0.00 | 0.00 | 0.00 | 85 | 1015.9 |
| 20260904031739 | 62 | 203 | 0.0 | 1.0 | 0.00 | 0.00 | 0.00 | 85 | 1015.9 |
| 20260904031730 | 62 | 206 | 0.0 | 1.0 | 0.00 | 0.00 | 0.00 | 85 | 1015.7 |
| 20260904031714 | 62 | 201 | 0.0 | 1.0 | 0.00 | 0.00 | 0.00 | 85 | 1015.9 |
| 20260904031425 | 62 | 205 | 0.0 | 1.0 | 0.00 | 0.00 | 0.00 | 85 | 1015.6 |
| 20260904031357 | 62 | 206 | 0.0 | 1.0 | 0.00 | 0.00 | 0.00 | 85 | 1015.6 |
| 20260904031348 | 62 | 204 | 0.0 | 1.0 | 0.00 | 0.00 | 0.00 | 85 | 1015.7 |
| 20260904031114 | 63 | 207 | 0.0 | 1.0 | 0.00 | 0.00 | 0.00 | 85 | 1015.7 |
| 20260904030726 | 63 | 202 | 0.0 | 0.0 | 0.00 | 0.00 | 0.00 | 85 | 1015.8 |
| 20260904030654 | 63 | 202 | 0.0 | 0.0 | 0.00 | 0.00 | 0.00 | 85 | 1015.8 |
| 20260904030553 | 63 | 202 | 0.0 | 0.0 | 0.00 | 0.00 | 0.00 | 85 | 1015.6 |
| 20260904030452 | 63 | 202 | 0.0 | 0.0 | 0.00 | 0.00 | 0.00 | 84 | 1015.8 |
| 20260904030353 | 63 | 202 | 0.0 | 0.0 | 0.00 | 0.00 | 0.00 | 84 | 1015.8 |
| 20260904030304 | 63 | 202 | 0.0 | 0.0 | 0.00 | 0.00 | 0.00 | 84 | 1016.0 |
| 20260904030255 | 63 | 202 | 0.0 | 0.0 | 0.00 | 0.00 | 0.00 | 84 | 1016.0 |
| 20260904030229 | 63 | 202 | 0.0 | 0.0 | 0.00 | 0.00 | 0.00 | 84 | 1015.8 |
| 20260904030213 | 63 | 202 | 0.0 | 0.0 | 0.00 | 0.00 | 0.00 | 84 | 1015.9 |
| 20260904025938 | 63 | 202 | 0.0 | 0.0 | 0.00 | 0.00 | 0.00 | 84 | 1015.8 |